Time,TemperatureF,DewpointF,PressureIn,WindDirection,WindDirectionDegrees,WindSpeedMPH,WindSpeedGustMPH,Humidity,HourlyPrecipIn,Conditions,Clouds,dailyrainin,SoftwareType,DateUTC
2013-03-24 00:04:00,39.2,15.7,30.21,NE,52,2.2,2.2,38,0.00,,---,0.00,VWS V14.01,2013-03-24 07:04:00,
2013-03-24 00:06:00,39.4,16.5,30.21,NNE,29,3.1,3.1,39,0.00,,---,0.00,VWS V14.01,2013-03-24 07:06:00,
2013-03-24 00:08:00,39.4,16.5,30.21,NNE,29,3.1,3.1,39,0.00,,---,0.00,VWS V14.01,2013-03-24 07:08:00,
2013-03-24 00:09:00,39.4,16.5,30.21,NNE,29,3.1,3.1,39,0.00,,---,0.00,VWS V14.01,2013-03-24 07:09:00,
2013-03-24 00:10:00,39.4,16.5,30.21,NNE,29,3.1,3.1,39,0.00,,---,0.00,VWS V14.01,2013-03-24 07:10:00,
2013-03-24 00:15:00,39.6,16.7,30.18,NNE,29,2.7,3.6,39,0.00,,---,0.00,VWS V14.01,2013-03-24 07:15:00,
2013-03-24 00:16:00,39.6,16.7,30.18,NNE,29,2.7,2.7,39,0.00,,---,0.00,VWS V14.01,2013-03-24 07:16:00,
2013-03-24 00:17:00,39.6,16.7,30.18,NE,44,3.1,3.1,39,0.00,,---,0.00,VWS V14.01,2013-03-24 07:17:00,
2013-03-24 00:18:00,39.6,16.7,30.18,NE,44,3.1,3.1,39,0.00,,---,0.00,VWS V14.01,2013-03-24 07:18:00,
2013-03-24 00:20:00,39.6,16.7,30.18,NE,34,4.0,4.0,39,0.00,,---,0.00,VWS V14.01,2013-03-24 07:20:00,
2013-03-24 00:21:00,39.7,16.8,30.18,NNE,25,2.7,4.0,39,0.00,,---,0.00,VWS V14.01,2013-03-24 07:21:00,
2013-03-24 00:23:00,39.7,16.8,30.18,NE,52,3.6,3.6,39,0.00,,---,0.00,VWS V14.01,2013-03-24 07:23:00,
2013-03-24 00:24:00,39.7,16.8,30.18,NNE,28,4.5,4.5,39,0.00,,---,0.00,VWS V14.01,2013-03-24 07:24:00,
2013-03-24 00:28:00,39.7,17.4,30.18,NNE,25,2.7,3.6,40,0.00,,---,0.00,VWS V14.01,2013-03-24 07:28:00,
2013-03-24 00:30:00,39.7,17.4,30.18,NE,34,3.6,3.6,40,0.00,,---,0.00,VWS V14.01,2013-03-24 07:30:00,
2013-03-24 00:31:00,39.7,17.4,30.18,NE,34,3.6,3.6,40,0.00,,---,0.00,VWS V14.01,2013-03-24 07:31:00,
2013-03-24 00:33:00,39.7,17.4,30.18,NE,34,3.6,3.6,40,0.00,,---,0.00,VWS V14.01,2013-03-24 07:33:00,
2013-03-24 00:34:00,39.7,17.4,30.18,NE,34,3.6,3.6,40,0.00,,---,0.00,VWS V14.01,2013-03-24 07:34:00,
2013-03-24 00:36:00,39.7,17.4,30.18,NE,53,3.1,3.1,40,0.00,,---,0.00,VWS V14.01,2013-03-24 07:36:00,
2013-03-24 00:38:00,39.7,17.4,30.18,NE,36,2.7,4.0,40,0.00,,---,0.00,VWS V14.01,2013-03-24 07:38:00,
2013-03-24 00:39:00,39.7,17.4,30.18,NNE,33,3.1,3.1,40,0.00,,---,0.00,VWS V14.01,2013-03-24 07:39:00,
2013-03-24 00:40:00,39.7,17.4,30.18,ENE,62,2.7,3.1,40,0.00,,---,0.00,VWS V14.01,2013-03-24 07:40:00,
2013-03-24 00:41:00,39.7,17.4,30.18,NE,53,4.9,4.9,40,0.00,,---,0.00,VWS V14.01,2013-03-24 07:41:00,
2013-03-24 00:46:00,39.7,17.4,30.18,NE,46,4.9,5.8,40,0.00,,---,0.00,VWS V14.01,2013-03-24 07:46:00,
2013-03-24 00:47:00,39.7,17.4,30.18,NE,46,4.9,4.9,40,0.00,,---,0.00,VWS V14.01,2013-03-24 07:47:00,
2013-03-24 00:50:00,39.7,17.4,30.18,ENE,63,5.4,5.4,40,0.00,,---,0.00,VWS V14.01,2013-03-24 07:50:00,
2013-03-24 00:51:00,39.7,17.4,30.18,ENE,63,5.4,5.4,40,0.00,,---,0.00,VWS V14.01,2013-03-24 07:51:00,
2013-03-24 00:52:00,39.7,17.4,30.18,NE,44,3.1,5.4,40,0.00,,---,0.00,VWS V14.01,2013-03-24 07:52:00,
2013-03-24 00:56:00,39.6,17.2,30.18,ENE,57,4.0,8.1,40,0.00,,---,0.00,VWS V14.01,2013-03-24 07:56:00,
2013-03-24 00:57:00,39.6,17.2,30.18,ENE,57,4.0,4.0,40,0.00,,---,0.00,VWS V14.01,2013-03-24 07:57:00,
2013-03-24 01:00:00,39.7,17.4,30.18,NNE,20,5.8,5.8,40,0.00,,---,0.00,VWS V14.01,2013-03-24 08:00:00,
2013-03-24 01:02:00,39.7,17.4,30.18,ENE,61,8.1,8.1,40,0.00,,---,0.00,VWS V14.01,2013-03-24 08:02:00,
2013-03-24 01:04:00,39.7,17.4,30.18,ENE,61,8.1,8.1,40,0.00,,---,0.00,VWS V14.01,2013-03-24 08:04:00,
2013-03-24 01:08:00,39.7,17.4,30.18,ENE,76,5.8,8.7,40,0.00,,---,0.00,VWS V14.01,2013-03-24 08:08:00,
2013-03-24 01:09:00,39.7,17.4,30.18,East,82,8.7,8.7,40,0.00,,---,0.00,VWS V14.01,2013-03-24 08:09:00,
2013-03-24 01:11:00,39.7,17.4,30.21,ENE,67,5.4,8.3,40,0.00,,---,0.00,VWS V14.01,2013-03-24 08:11:00,
2013-03-24 01:12:00,39.7,17.4,30.21,NE,38,8.7,8.7,40,0.00,,---,0.00,VWS V14.01,2013-03-24 08:12:00,
2013-03-24 01:14:00,39.7,17.4,30.21,ENE,57,5.4,8.7,40,0.00,,---,0.00,VWS V14.01,2013-03-24 08:14:00,
2013-03-24 01:16:00,39.6,17.2,30.18,ENE,57,8.7,8.7,40,0.00,,---,0.00,VWS V14.01,2013-03-24 08:16:00,
2013-03-24 01:17:00,39.6,17.2,30.18,ENE,63,8.1,8.7,40,0.00,,---,0.00,VWS V14.01,2013-03-24 08:17:00,
2013-03-24 01:22:00,39.4,17.1,30.18,NE,50,8.7,8.7,40,0.00,,---,0.00,VWS V14.01,2013-03-24 08:22:00,
2013-03-24 01:23:00,39.4,17.1,30.18,ENE,70,8.1,8.7,40,0.00,,---,0.00,VWS V14.01,2013-03-24 08:23:00,
2013-03-24 01:26:00,39.4,17.1,30.18,NE,45,4.0,7.6,40,0.00,,---,0.00,VWS V14.01,2013-03-24 08:26:00,
2013-03-24 01:28:00,39.4,17.1,30.18,ENE,68,4.9,7.6,40,0.00,,---,0.00,VWS V14.01,2013-03-24 08:28:00,
2013-03-24 01:32:00,39.6,17.2,30.18,ENE,76,7.6,8.3,40,0.00,,---,0.00,VWS V14.01,2013-03-24 08:32:00,
2013-03-24 01:33:00,39.6,17.2,30.18,North,8,3.1,10.1,40,0.00,,---,0.00,VWS V14.01,2013-03-24 08:33:00,
2013-03-24 01:35:00,39.6,16.7,30.18,North,3,8.3,8.3,39,0.00,,---,0.00,VWS V14.01,2013-03-24 08:35:00,
2013-03-24 01:38:00,39.6,16.7,30.18,NNE,30,8.1,8.1,39,0.00,,---,0.00,VWS V14.01,2013-03-24 08:38:00,
2013-03-24 01:39:00,39.6,16.7,30.18,ENE,75,10.1,10.1,39,0.00,,---,0.00,VWS V14.01,2013-03-24 08:39:00,
2013-03-24 01:40:00,39.6,16.7,30.18,NE,52,5.8,10.1,39,0.00,,---,0.00,VWS V14.01,2013-03-24 08:40:00,
2013-03-24 01:43:00,39.6,16.7,30.18,ENE,73,9.2,9.2,39,0.00,,---,0.00,VWS V14.01,2013-03-24 08:43:00,
2013-03-24 01:45:00,39.6,16.7,30.18,ENE,76,11.0,11.0,39,0.00,,---,0.00,VWS V14.01,2013-03-24 08:45:00,
2013-03-24 01:47:00,39.6,16.7,30.18,ENE,60,6.3,6.3,39,0.00,,---,0.00,VWS V14.01,2013-03-24 08:47:00,
2013-03-24 01:48:00,39.6,16.7,30.18,ENE,61,5.4,6.3,39,0.00,,---,0.00,VWS V14.01,2013-03-24 08:48:00,
2013-03-24 01:50:00,39.6,16.7,30.18,NE,39,6.3,9.2,39,0.00,,---,0.00,VWS V14.01,2013-03-24 08:50:00,
2013-03-24 01:52:00,39.6,16.7,30.18,ENE,63,6.3,6.3,39,0.00,,---,0.00,VWS V14.01,2013-03-24 08:52:00,
2013-03-24 01:53:00,39.4,16.5,30.18,East,84,5.4,6.3,39,0.00,,---,0.00,VWS V14.01,2013-03-24 08:53:00,
2013-03-24 01:55:00,39.4,16.5,30.18,East,84,7.6,8.7,39,0.00,,---,0.00,VWS V14.01,2013-03-24 08:55:00,
2013-03-24 01:57:00,39.4,16.5,30.18,NE,35,5.8,7.6,39,0.00,,---,0.00,VWS V14.01,2013-03-24 08:57:00,
2013-03-24 02:00:00,39.4,16.5,30.18,NE,56,2.7,8.3,39,0.00,,---,0.00,VWS V14.01,2013-03-24 09:00:00,
2013-03-24 02:02:00,39.4,16.5,30.18,ENE,78,6.3,6.3,39,0.00,,---,0.00,VWS V14.01,2013-03-24 09:02:00,
2013-03-24 02:03:00,39.4,16.5,30.18,ENE,73,7.6,7.6,39,0.00,,---,0.00,VWS V14.01,2013-03-24 09:03:00,
2013-03-24 02:06:00,39.4,16.5,30.18,ENE,63,8.1,8.7,39,0.00,,---,0.00,VWS V14.01,2013-03-24 09:06:00,
2013-03-24 02:07:00,39.4,16.5,30.18,ENE,73,6.7,8.1,39,0.00,,---,0.00,VWS V14.01,2013-03-24 09:07:00,
2013-03-24 02:08:00,39.4,16.5,30.18,NE,46,6.7,7.6,39,0.00,,---,0.00,VWS V14.01,2013-03-24 09:08:00,
2013-03-24 02:13:00,39.2,16.3,30.18,NE,35,6.3,8.1,39,0.00,,---,0.00,VWS V14.01,2013-03-24 09:13:00,
2013-03-24 02:14:00,39.2,16.3,30.18,ENE,69,5.4,6.3,39,0.00,,---,0.00,VWS V14.01,2013-03-24 09:14:00,
2013-03-24 02:15:00,39.2,16.3,30.18,NE,42,3.6,7.6,39,0.00,,---,0.00,VWS V14.01,2013-03-24 09:15:00,
2013-03-24 02:19:00,39.2,16.3,30.18,East,93,8.1,8.1,39,0.00,,---,0.00,VWS V14.01,2013-03-24 09:19:00,
2013-03-24 02:20:00,39.2,16.3,30.18,ENE,72,7.6,8.3,39,0.00,,---,0.00,VWS V14.01,2013-03-24 09:20:00,
2013-03-24 02:21:00,39.4,16.5,30.18,East,84,7.6,8.3,39,0.00,,---,0.00,VWS V14.01,2013-03-24 09:21:00,
2013-03-24 02:22:00,39.4,16.5,30.18,ENE,68,8.1,8.1,39,0.00,,---,0.00,VWS V14.01,2013-03-24 09:22:00,
2013-03-24 02:24:00,39.4,16.5,30.18,East,81,7.6,7.6,39,0.00,,---,0.00,VWS V14.01,2013-03-24 09:24:00,
2013-03-24 02:28:00,39.4,16.5,30.18,East,86,10.1,10.1,39,0.00,,---,0.00,VWS V14.01,2013-03-24 09:28:00,
2013-03-24 02:29:00,39.4,16.5,30.18,East,82,8.3,10.1,39,0.00,,---,0.00,VWS V14.01,2013-03-24 09:29:00,
2013-03-24 02:30:00,39.2,16.3,30.18,East,85,8.1,9.2,39,0.00,,---,0.00,VWS V14.01,2013-03-24 09:30:00,
2013-03-24 02:34:00,39.0,16.8,30.18,East,88,8.7,8.7,40,0.00,,---,0.00,VWS V14.01,2013-03-24 09:34:00,
2013-03-24 02:35:00,39.0,16.8,30.18,East,92,8.7,8.7,40,0.00,,---,0.00,VWS V14.01,2013-03-24 09:35:00,
2013-03-24 02:36:00,38.8,16.6,30.18,East,89,8.7,8.7,40,0.00,,---,0.00,VWS V14.01,2013-03-24 09:36:00,
2013-03-24 02:37:00,38.8,16.6,30.18,East,84,8.7,9.2,40,0.00,,---,0.00,VWS V14.01,2013-03-24 09:37:00,
2013-03-24 02:39:00,38.7,16.4,30.18,East,94,9.2,9.2,40,0.00,,---,0.00,VWS V14.01,2013-03-24 09:39:00,
2013-03-24 02:42:00,38.7,16.4,30.18,East,91,8.7,8.7,40,0.00,,---,0.00,VWS V14.01,2013-03-24 09:42:00,
2013-03-24 02:45:00,38.5,16.8,30.18,ENE,66,7.6,8.1,41,0.00,,---,0.00,VWS V14.01,2013-03-24 09:45:00,
2013-03-24 02:47:00,38.5,16.8,30.18,ENE,70,8.1,8.1,41,0.00,,---,0.00,VWS V14.01,2013-03-24 09:47:00,
2013-03-24 02:48:00,38.5,16.8,30.18,ENE,78,8.1,8.1,41,0.00,,---,0.00,VWS V14.01,2013-03-24 09:48:00,
2013-03-24 02:51:00,38.5,16.8,30.18,NE,47,6.3,6.3,41,0.00,,---,0.00,VWS V14.01,2013-03-24 09:51:00,
2013-03-24 02:53:00,38.5,17.4,30.18,NE,45,7.6,8.1,42,0.00,,---,0.00,VWS V14.01,2013-03-24 09:53:00,
2013-03-24 02:55:00,38.5,17.4,30.18,ENE,68,6.3,6.3,42,0.00,,---,0.00,VWS V14.01,2013-03-24 09:55:00,
2013-03-24 02:58:00,38.5,16.8,30.18,ENE,72,5.4,5.8,41,0.00,,---,0.00,VWS V14.01,2013-03-24 09:58:00,
2013-03-24 03:00:00,38.5,16.8,30.18,ENE,68,7.6,7.6,41,0.00,,---,0.00,VWS V14.01,2013-03-24 10:00:00,
2013-03-24 03:03:00,38.3,17.2,30.18,East,82,6.3,7.6,42,0.00,,---,0.00,VWS V14.01,2013-03-24 10:03:00,
2013-03-24 03:05:00,38.1,17.1,30.18,East,79,5.8,8.1,42,0.00,,---,0.00,VWS V14.01,2013-03-24 10:05:00,
2013-03-24 03:07:00,38.1,17.1,30.18,ENE,69,7.6,8.3,42,0.00,,---,0.00,VWS V14.01,2013-03-24 10:07:00,
2013-03-24 03:08:00,38.1,17.1,30.18,ENE,65,5.4,7.6,42,0.00,,---,0.00,VWS V14.01,2013-03-24 10:08:00,
2013-03-24 03:09:00,37.9,16.9,30.18,ENE,62,5.4,5.4,42,0.00,,---,0.00,VWS V14.01,2013-03-24 10:09:00,
2013-03-24 03:12:00,37.8,16.8,30.18,ENE,76,5.8,6.7,42,0.00,,---,0.00,VWS V14.01,2013-03-24 10:12:00,
2013-03-24 03:13:00,37.8,16.8,30.18,East,82,5.4,6.3,42,0.00,,---,0.00,VWS V14.01,2013-03-24 10:13:00,
2013-03-24 03:14:00,37.9,16.9,30.18,ENE,69,6.7,6.7,42,0.00,,---,0.00,VWS V14.01,2013-03-24 10:14:00,
2013-03-24 03:17:00,37.9,16.9,30.18,ENE,67,5.8,6.3,42,0.00,,---,0.00,VWS V14.01,2013-03-24 10:17:00,
2013-03-24 03:18:00,37.8,16.8,30.18,ENE,70,5.4,5.8,42,0.00,,---,0.00,VWS V14.01,2013-03-24 10:18:00,
2013-03-24 03:19:00,37.8,16.8,30.18,ENE,65,4.0,5.4,42,0.00,,---,0.00,VWS V14.01,2013-03-24 10:19:00,
2013-03-24 03:24:00,37.6,16.6,30.18,ENE,75,7.6,7.6,42,0.00,,---,0.00,VWS V14.01,2013-03-24 10:24:00,
2013-03-24 03:27:00,37.4,16.4,30.18,East,87,6.3,6.3,42,0.00,,---,0.00,VWS V14.01,2013-03-24 10:27:00,
2013-03-24 03:29:00,37.4,16.4,30.18,ENE,63,4.0,5.8,42,0.00,,---,0.00,VWS V14.01,2013-03-24 10:29:00,
2013-03-24 03:30:00,37.4,16.4,30.18,NE,37,2.2,4.0,42,0.00,,---,0.00,VWS V14.01,2013-03-24 10:30:00,
2013-03-24 03:35:00,37.0,16.6,30.18,East,89,5.4,8.7,43,0.00,,---,0.00,VWS V14.01,2013-03-24 10:35:00,
2013-03-24 03:36:00,37.0,16.6,30.18,East,92,8.1,8.1,43,0.00,,---,0.00,VWS V14.01,2013-03-24 10:36:00,
2013-03-24 03:38:00,37.0,17.2,30.18,East,89,5.8,5.8,44,0.00,,---,0.00,VWS V14.01,2013-03-24 10:38:00,
2013-03-24 03:39:00,37.0,17.2,30.18,East,87,8.1,8.1,44,0.00,,---,0.00,VWS V14.01,2013-03-24 10:39:00,
2013-03-24 03:40:00,37.0,17.2,30.18,East,82,8.3,8.3,44,0.00,,---,0.00,VWS V14.01,2013-03-24 10:40:00,
2013-03-24 03:41:00,36.9,17.0,30.18,ENE,73,7.2,8.3,44,0.00,,---,0.00,VWS V14.01,2013-03-24 10:41:00,
2013-03-24 03:44:00,36.9,17.5,30.18,East,87,8.7,10.1,45,0.00,,---,0.00,VWS V14.01,2013-03-24 10:44:00,
2013-03-24 03:46:00,36.9,17.5,30.18,East,85,9.6,9.6,45,0.00,,---,0.00,VWS V14.01,2013-03-24 10:46:00,
2013-03-24 03:52:00,36.9,17.0,30.18,East,88,10.5,11.0,44,0.00,,---,0.00,VWS V14.01,2013-03-24 10:52:00,
2013-03-24 03:54:00,36.9,17.5,30.18,ENE,75,11.0,11.0,45,0.00,,---,0.00,VWS V14.01,2013-03-24 10:54:00,
2013-03-24 03:55:00,36.9,17.5,30.18,ENE,77,10.1,11.0,45,0.00,,---,0.00,VWS V14.01,2013-03-24 10:55:00,
2013-03-24 03:56:00,36.9,17.5,30.18,East,88,10.1,10.5,45,0.00,,---,0.00,VWS V14.01,2013-03-24 10:56:00,
2013-03-24 03:59:00,36.9,17.5,30.18,East,89,8.7,10.5,45,0.00,,---,0.00,VWS V14.01,2013-03-24 10:59:00,
2013-03-24 04:01:00,36.7,17.4,30.18,East,84,11.0,11.0,45,0.00,,---,0.00,VWS V14.01,2013-03-24 11:01:00,
2013-03-24 04:06:00,36.7,17.4,30.18,East,86,10.5,11.0,45,0.00,,---,0.00,VWS V14.01,2013-03-24 11:06:00,
2013-03-24 04:07:00,36.7,17.4,30.18,East,91,10.5,11.0,45,0.00,,---,0.00,VWS V14.01,2013-03-24 11:07:00,
2013-03-24 04:08:00,36.7,17.4,30.18,East,97,10.1,10.5,45,0.00,,---,0.00,VWS V14.01,2013-03-24 11:08:00,
2013-03-24 04:11:00,36.7,17.4,30.18,East,86,8.7,10.1,45,0.00,,---,0.00,VWS V14.01,2013-03-24 11:11:00,
2013-03-24 04:13:00,36.7,17.4,30.18,East,82,10.1,10.1,45,0.00,,---,0.00,VWS V14.01,2013-03-24 11:13:00,
2013-03-24 04:14:00,36.7,17.4,30.18,East,82,9.2,10.1,45,0.00,,---,0.00,VWS V14.01,2013-03-24 11:14:00,
2013-03-24 04:15:00,36.7,17.4,30.18,East,88,8.3,9.2,45,0.00,,---,0.00,VWS V14.01,2013-03-24 11:15:00,
2013-03-24 04:16:00,36.7,17.4,30.18,East,83,8.1,8.3,45,0.00,,---,0.00,VWS V14.01,2013-03-24 11:16:00,
2013-03-24 04:21:00,36.7,17.4,30.18,East,88,10.5,12.8,45,0.00,,---,0.00,VWS V14.01,2013-03-24 11:21:00,
2013-03-24 04:26:00,36.7,17.4,30.18,East,80,10.1,10.1,45,0.00,,---,0.00,VWS V14.01,2013-03-24 11:26:00,
2013-03-24 04:27:00,36.7,17.4,30.18,East,97,9.2,10.1,45,0.00,,---,0.00,VWS V14.01,2013-03-24 11:27:00,
2013-03-24 04:32:00,36.7,17.9,30.18,East,80,10.5,10.5,46,0.00,,---,0.00,VWS V14.01,2013-03-24 11:32:00,
2013-03-24 04:33:00,36.7,17.9,30.18,East,83,8.7,10.5,46,0.00,,---,0.00,VWS V14.01,2013-03-24 11:33:00,
2013-03-24 04:35:00,36.7,17.9,30.18,ENE,72,10.1,10.1,46,0.00,,---,0.00,VWS V14.01,2013-03-24 11:35:00,
2013-03-24 04:38:00,36.9,18.0,30.18,ENE,57,7.6,7.6,46,0.00,,---,0.00,VWS V14.01,2013-03-24 11:38:00,
2013-03-24 04:40:00,36.9,18.0,30.18,ENE,70,10.1,10.1,46,0.00,,---,0.00,VWS V14.01,2013-03-24 11:40:00,
2013-03-24 04:42:00,36.9,18.0,30.18,East,86,11.0,11.0,46,0.00,,---,0.00,VWS V14.01,2013-03-24 11:42:00,
2013-03-24 04:43:00,36.9,18.0,30.18,NE,53,5.8,11.0,46,0.00,,---,0.00,VWS V14.01,2013-03-24 11:43:00,
2013-03-24 04:47:00,36.9,18.0,30.18,East,84,10.5,11.0,46,0.00,,---,0.00,VWS V14.01,2013-03-24 11:47:00,
2013-03-24 04:48:00,36.9,18.0,30.18,East,84,11.4,11.4,46,0.00,,---,0.00,VWS V14.01,2013-03-24 11:48:00,
2013-03-24 04:49:00,36.9,18.0,30.18,East,84,8.7,11.4,46,0.00,,---,0.00,VWS V14.01,2013-03-24 11:49:00,
2013-03-24 04:50:00,36.9,18.0,30.18,East,85,10.5,11.0,46,0.00,,---,0.00,VWS V14.01,2013-03-24 11:50:00,
2013-03-24 04:55:00,37.0,18.2,30.18,East,90,10.5,11.0,46,0.00,,---,0.00,VWS V14.01,2013-03-24 11:55:00,
2013-03-24 04:57:00,37.0,17.7,30.18,East,87,10.5,10.5,45,0.00,,---,0.00,VWS V14.01,2013-03-24 11:57:00,
2013-03-24 04:59:00,37.0,17.7,30.18,East,82,10.5,10.5,45,0.00,,---,0.00,VWS V14.01,2013-03-24 11:59:00,
2013-03-24 05:00:00,37.0,17.7,30.18,East,88,8.1,10.5,45,0.00,,---,0.00,VWS V14.01,2013-03-24 12:00:00,
2013-03-24 05:05:00,37.0,17.7,30.18,East,92,8.7,11.0,45,0.00,,---,0.00,VWS V14.01,2013-03-24 12:05:00,
2013-03-24 05:07:00,37.0,17.7,30.18,East,83,8.7,8.7,45,0.00,,---,0.00,VWS V14.01,2013-03-24 12:07:00,
2013-03-24 05:12:00,37.0,17.7,30.18,ENE,73,6.3,8.1,45,0.00,,---,0.00,VWS V14.01,2013-03-24 12:12:00,
2013-03-24 05:13:00,37.0,17.7,30.18,ENE,70,6.3,6.3,45,0.00,,---,0.00,VWS V14.01,2013-03-24 12:13:00,
2013-03-24 05:18:00,37.0,17.7,30.18,ENE,69,8.1,8.1,45,0.00,,---,0.00,VWS V14.01,2013-03-24 12:18:00,
2013-03-24 05:22:00,37.0,17.7,30.18,ENE,74,8.3,8.3,45,0.00,,---,0.00,VWS V14.01,2013-03-24 12:22:00,
2013-03-24 05:23:00,37.0,17.7,30.18,East,85,9.2,9.2,45,0.00,,---,0.00,VWS V14.01,2013-03-24 12:23:00,
2013-03-24 05:25:00,37.0,17.7,30.18,ENE,74,8.7,8.7,45,0.00,,---,0.00,VWS V14.01,2013-03-24 12:25:00,
2013-03-24 05:27:00,37.0,17.2,30.18,East,83,10.1,10.1,44,0.00,,---,0.00,VWS V14.01,2013-03-24 12:27:00,
2013-03-24 05:29:00,37.0,17.2,30.18,ENE,75,9.2,9.6,44,0.00,,---,0.00,VWS V14.01,2013-03-24 12:29:00,
2013-03-24 05:30:00,36.9,17.0,30.18,ENE,73,8.7,9.2,44,0.00,,---,0.00,VWS V14.01,2013-03-24 12:30:00,
2013-03-24 05:32:00,37.0,17.2,30.18,ENE,71,9.2,9.2,44,0.00,,---,0.00,VWS V14.01,2013-03-24 12:32:00,
2013-03-24 05:34:00,36.9,17.0,30.18,East,79,8.7,10.1,44,0.00,,---,0.00,VWS V14.01,2013-03-24 12:34:00,
2013-03-24 05:35:00,36.9,17.0,30.18,ENE,77,10.5,10.5,44,0.00,,---,0.00,VWS V14.01,2013-03-24 12:35:00,
2013-03-24 05:37:00,36.9,16.5,30.18,ENE,78,9.6,10.1,43,0.00,,---,0.00,VWS V14.01,2013-03-24 12:37:00,
2013-03-24 05:40:00,36.9,16.5,30.18,ENE,72,11.0,11.0,43,0.00,,---,0.00,VWS V14.01,2013-03-24 12:40:00,
2013-03-24 05:41:00,36.9,16.5,30.18,East,84,11.0,11.0,43,0.00,,---,0.00,VWS V14.01,2013-03-24 12:41:00,
2013-03-24 05:45:00,36.9,16.5,30.18,East,81,10.5,10.5,43,0.00,,---,0.00,VWS V14.01,2013-03-24 12:45:00,
2013-03-24 05:46:00,36.9,16.5,30.18,East,81,8.7,10.5,43,0.00,,---,0.00,VWS V14.01,2013-03-24 12:46:00,
2013-03-24 05:51:00,36.7,16.8,30.18,East,91,11.0,12.8,44,0.00,,---,0.00,VWS V14.01,2013-03-24 12:51:00,
2013-03-24 05:52:00,36.7,16.8,30.18,East,97,11.0,11.0,44,0.00,,---,0.00,VWS V14.01,2013-03-24 12:52:00,
2013-03-24 05:56:00,36.7,16.8,30.18,East,95,10.1,10.1,44,0.00,,---,0.00,VWS V14.01,2013-03-24 12:56:00,
2013-03-24 05:57:00,36.7,16.8,30.18,East,100,10.1,10.1,44,0.00,,---,0.00,VWS V14.01,2013-03-24 12:57:00,
2013-03-24 05:58:00,36.7,16.8,30.18,East,101,8.7,10.1,44,0.00,,---,0.00,VWS V14.01,2013-03-24 12:58:00,
2013-03-24 06:01:00,36.7,16.8,30.18,East,95,8.7,8.7,44,0.00,,---,0.00,VWS V14.01,2013-03-24 13:01:00,
2013-03-24 06:04:00,36.7,16.8,30.18,East,99,10.5,11.0,44,0.00,,---,0.00,VWS V14.01,2013-03-24 13:04:00,
2013-03-24 06:06:00,36.7,16.8,30.18,East,99,10.5,10.5,44,0.00,,---,0.00,VWS V14.01,2013-03-24 13:06:00,
2013-03-24 06:07:00,36.7,16.8,30.18,East,95,9.2,10.5,44,0.00,,---,0.00,VWS V14.01,2013-03-24 13:07:00,
2013-03-24 06:09:00,36.7,16.8,30.18,East,99,11.0,11.0,44,0.00,,---,0.00,VWS V14.01,2013-03-24 13:09:00,
2013-03-24 06:12:00,36.7,16.8,30.18,East,84,11.0,11.0,44,0.00,,---,0.00,VWS V14.01,2013-03-24 13:12:00,
2013-03-24 06:13:00,36.7,16.8,30.18,East,89,11.0,11.0,44,0.00,,---,0.00,VWS V14.01,2013-03-24 13:13:00,
2013-03-24 06:14:00,36.7,16.8,30.18,ENE,73,8.7,11.0,44,0.00,,---,0.00,VWS V14.01,2013-03-24 13:14:00,
2013-03-24 06:17:00,36.7,16.8,30.18,East,95,8.7,8.7,44,0.00,,---,0.00,VWS V14.01,2013-03-24 13:17:00,
2013-03-24 06:18:00,36.7,16.8,30.18,East,86,8.1,8.7,44,0.00,,---,0.00,VWS V14.01,2013-03-24 13:18:00,
2013-03-24 06:19:00,36.7,16.8,30.18,ENE,78,8.7,8.7,44,0.00,,---,0.00,VWS V14.01,2013-03-24 13:19:00,
2013-03-24 06:21:00,36.7,16.8,30.18,East,85,8.3,8.7,44,0.00,,---,0.00,VWS V14.01,2013-03-24 13:21:00,
2013-03-24 06:24:00,36.7,16.8,30.18,East,83,6.7,8.3,44,0.00,,---,0.00,VWS V14.01,2013-03-24 13:24:00,
2013-03-24 06:26:00,36.7,16.8,30.18,ENE,78,8.3,8.3,44,0.00,,---,0.00,VWS V14.01,2013-03-24 13:26:00,
2013-03-24 06:27:00,36.7,16.8,30.18,ENE,58,7.6,8.3,44,0.00,,---,0.00,VWS V14.01,2013-03-24 13:27:00,
2013-03-24 06:30:00,36.7,16.8,30.18,ENE,73,7.6,8.7,44,0.00,,---,0.00,VWS V14.01,2013-03-24 13:30:00,
2013-03-24 06:31:00,36.7,16.8,30.18,ENE,72,8.3,8.7,44,0.00,,---,0.00,VWS V14.01,2013-03-24 13:31:00,
2013-03-24 06:32:00,36.7,16.8,30.18,East,82,8.7,8.7,44,0.00,,---,0.00,VWS V14.01,2013-03-24 13:32:00,
2013-03-24 06:33:00,36.7,16.8,30.18,East,82,8.1,8.7,44,0.00,,---,0.00,VWS V14.01,2013-03-24 13:33:00,
2013-03-24 06:36:00,36.5,16.1,30.18,East,89,8.7,9.2,43,0.00,,---,0.00,VWS V14.01,2013-03-24 13:36:00,
2013-03-24 06:38:00,36.5,16.1,30.18,East,87,10.1,10.5,43,0.00,,---,0.00,VWS V14.01,2013-03-24 13:38:00,
2013-03-24 06:39:00,36.5,16.1,30.18,ENE,64,8.7,10.1,43,0.00,,---,0.00,VWS V14.01,2013-03-24 13:39:00,
2013-03-24 06:42:00,36.5,16.1,30.18,East,98,8.7,10.1,43,0.00,,---,0.00,VWS V14.01,2013-03-24 13:42:00,
2013-03-24 06:44:00,36.5,16.1,30.18,East,91,8.3,10.1,43,0.00,,---,0.00,VWS V14.01,2013-03-24 13:44:00,
2013-03-24 06:45:00,36.5,16.1,30.18,ENE,78,9.2,10.1,43,0.00,,---,0.00,VWS V14.01,2013-03-24 13:45:00,
2013-03-24 06:46:00,36.5,16.1,30.18,East,82,7.6,9.2,43,0.00,,---,0.00,VWS V14.01,2013-03-24 13:46:00,
2013-03-24 06:48:00,36.5,16.1,30.18,East,79,8.7,10.1,43,0.00,,---,0.00,VWS V14.01,2013-03-24 13:48:00,
2013-03-24 06:50:00,36.5,16.1,30.18,ENE,74,8.3,8.3,43,0.00,,---,0.00,VWS V14.01,2013-03-24 13:50:00,
2013-03-24 06:51:00,36.5,16.1,30.18,ENE,69,8.1,8.7,43,0.00,,---,0.00,VWS V14.01,2013-03-24 13:51:00,
2013-03-24 06:55:00,36.5,15.6,30.18,East,86,8.7,8.7,42,0.00,,---,0.00,VWS V14.01,2013-03-24 13:55:00,
2013-03-24 06:56:00,36.5,15.6,30.18,ENE,70,5.4,8.7,42,0.00,,---,0.00,VWS V14.01,2013-03-24 13:56:00,
2013-03-24 06:58:00,36.5,15.6,30.18,East,91,8.7,8.7,42,0.00,,---,0.00,VWS V14.01,2013-03-24 13:58:00,
2013-03-24 07:00:00,36.5,15.6,30.18,ENE,75,8.1,8.1,42,0.00,,---,0.00,VWS V14.01,2013-03-24 14:00:00,
2013-03-24 07:01:00,36.5,15.6,30.18,NE,56,6.3,8.1,42,0.00,,---,0.00,VWS V14.01,2013-03-24 14:01:00,
2013-03-24 07:04:00,36.5,16.1,30.18,ENE,68,4.9,5.8,43,0.00,,---,0.00,VWS V14.01,2013-03-24 14:04:00,
2013-03-24 07:06:00,36.5,16.1,30.18,ENE,69,8.1,8.3,43,0.00,,---,0.00,VWS V14.01,2013-03-24 14:06:00,
2013-03-24 07:08:00,36.5,16.1,30.18,East,83,5.8,6.3,43,0.00,,---,0.00,VWS V14.01,2013-03-24 14:08:00,
2013-03-24 07:11:00,36.5,16.1,30.18,East,89,5.4,5.4,43,0.00,,---,0.00,VWS V14.01,2013-03-24 14:11:00,
2013-03-24 07:13:00,36.7,16.3,30.18,ENE,76,5.4,6.3,43,0.00,,---,0.00,VWS V14.01,2013-03-24 14:13:00,
2013-03-24 07:14:00,36.7,16.3,30.18,East,82,5.4,5.4,43,0.00,,---,0.00,VWS V14.01,2013-03-24 14:14:00,
2013-03-24 07:18:00,36.7,16.8,30.18,ENE,58,3.6,6.3,44,0.00,,---,0.00,VWS V14.01,2013-03-24 14:18:00,
2013-03-24 07:19:00,36.7,16.8,30.18,East,82,6.3,8.1,44,0.00,,---,0.00,VWS V14.01,2013-03-24 14:19:00,
2013-03-24 07:20:00,36.7,16.8,30.18,East,90,6.3,6.3,44,0.00,,---,0.00,VWS V14.01,2013-03-24 14:20:00,
2013-03-24 07:21:00,36.7,16.8,30.18,NE,53,5.4,6.3,44,0.00,,---,0.00,VWS V14.01,2013-03-24 14:21:00,
2013-03-24 07:23:00,36.7,16.8,30.18,ENE,77,5.8,7.6,44,0.00,,---,0.00,VWS V14.01,2013-03-24 14:23:00,
2013-03-24 07:24:00,36.7,16.8,30.18,ENE,75,4.9,5.8,44,0.00,,---,0.00,VWS V14.01,2013-03-24 14:24:00,
2013-03-24 07:28:00,36.7,16.8,30.18,ENE,77,8.1,8.7,44,0.00,,---,0.00,VWS V14.01,2013-03-24 14:28:00,
2013-03-24 07:29:00,36.7,16.8,30.18,ENE,63,8.1,8.1,44,0.00,,---,0.00,VWS V14.01,2013-03-24 14:29:00,
2013-03-24 07:32:00,36.7,16.8,30.18,ENE,78,7.6,7.6,44,0.00,,---,0.00,VWS V14.01,2013-03-24 14:32:00,
2013-03-24 07:33:00,36.7,16.8,30.18,NE,50,6.3,7.6,44,0.00,,---,0.00,VWS V14.01,2013-03-24 14:33:00,
2013-03-24 07:34:00,36.7,16.8,30.18,NE,50,6.3,6.3,44,0.00,,---,0.00,VWS V14.01,2013-03-24 14:34:00,
2013-03-24 07:35:00,36.7,16.8,30.18,East,86,8.3,8.3,44,0.00,,---,0.00,VWS V14.01,2013-03-24 14:35:00,
2013-03-24 07:40:00,36.7,17.4,30.18,ENE,78,8.7,10.1,45,0.00,,---,0.00,VWS V14.01,2013-03-24 14:40:00,
2013-03-24 07:41:00,36.7,17.4,30.18,East,83,8.3,8.7,45,0.00,,---,0.00,VWS V14.01,2013-03-24 14:41:00,
2013-03-24 07:45:00,36.9,17.5,30.18,East,82,8.1,10.1,45,0.00,,---,0.00,VWS V14.01,2013-03-24 14:45:00,
2013-03-24 07:46:00,36.9,17.5,30.18,East,94,8.7,10.5,45,0.00,,---,0.00,VWS V14.01,2013-03-24 14:46:00,
2013-03-24 07:48:00,36.9,17.0,30.18,East,93,9.6,9.6,44,0.00,,---,0.00,VWS V14.01,2013-03-24 14:48:00,
2013-03-24 07:50:00,37.0,17.2,30.18,East,93,11.4,11.4,44,0.00,,---,0.00,VWS V14.01,2013-03-24 14:50:00,
2013-03-24 07:51:00,37.0,17.2,30.18,East,96,12.3,12.3,44,0.00,,---,0.00,VWS V14.01,2013-03-24 14:51:00,
2013-03-24 07:52:00,37.0,17.2,30.18,East,93,10.5,12.3,44,0.00,,---,0.00,VWS V14.01,2013-03-24 14:52:00,
2013-03-24 07:55:00,37.2,17.3,30.18,ENE,77,8.1,8.3,44,0.00,,---,0.00,VWS V14.01,2013-03-24 14:55:00,
2013-03-24 07:57:00,37.2,17.3,30.18,East,81,8.7,8.7,44,0.00,,---,0.00,VWS V14.01,2013-03-24 14:57:00,
2013-03-24 07:59:00,37.4,17.5,30.18,East,82,8.3,8.3,44,0.00,,---,0.00,VWS V14.01,2013-03-24 14:59:00,
2013-03-24 08:00:00,37.4,17.5,30.18,ENE,64,4.0,8.3,44,0.00,,---,0.00,VWS V14.01,2013-03-24 15:00:00,
2013-03-24 08:03:00,37.6,17.7,30.18,East,92,6.3,6.3,44,0.00,,---,0.00,VWS V14.01,2013-03-24 15:03:00,
2013-03-24 08:04:00,37.6,17.7,30.18,East,84,5.8,8.1,44,0.00,,---,0.00,VWS V14.01,2013-03-24 15:04:00,
2013-03-24 08:07:00,37.9,18.0,30.18,ENE,61,5.8,7.6,44,0.00,,---,0.00,VWS V14.01,2013-03-24 15:07:00,
2013-03-24 08:08:00,37.9,18.0,30.18,East,89,5.8,7.2,44,0.00,,---,0.00,VWS V14.01,2013-03-24 15:08:00,
2013-03-24 08:09:00,38.1,18.1,30.18,NE,51,6.3,7.6,44,0.00,,---,0.00,VWS V14.01,2013-03-24 15:09:00,
2013-03-24 08:11:00,38.3,18.3,30.18,ENE,57,5.4,8.1,44,0.00,,---,0.00,VWS V14.01,2013-03-24 15:11:00,
2013-03-24 08:13:00,38.5,18.5,30.18,East,82,3.6,8.3,44,0.00,,---,0.00,VWS V14.01,2013-03-24 15:13:00,
2013-03-24 08:15:00,38.7,18.1,30.18,ENE,66,8.1,8.1,43,0.00,,---,0.00,VWS V14.01,2013-03-24 15:15:00,
2013-03-24 08:16:00,38.8,18.3,30.18,East,80,8.3,8.3,43,0.00,,---,0.00,VWS V14.01,2013-03-24 15:16:00,
2013-03-24 08:17:00,38.8,18.3,30.18,ENE,69,8.7,8.7,43,0.00,,---,0.00,VWS V14.01,2013-03-24 15:17:00,
2013-03-24 08:21:00,39.4,17.1,30.18,ENE,57,11.0,11.0,40,0.00,,---,0.00,VWS V14.01,2013-03-24 15:21:00,
2013-03-24 08:22:00,39.4,17.1,30.18,East,84,9.6,11.0,40,0.00,,---,0.00,VWS V14.01,2013-03-24 15:22:00,
2013-03-24 08:23:00,39.6,16.7,30.18,East,81,11.4,11.4,39,0.00,,---,0.00,VWS V14.01,2013-03-24 15:23:00,
2013-03-24 08:25:00,39.7,16.8,30.18,ENE,75,11.4,11.9,39,0.00,,---,0.00,VWS V14.01,2013-03-24 15:25:00,
2013-03-24 08:27:00,39.9,17.0,30.18,ENE,73,12.8,13.2,39,0.00,,---,0.00,VWS V14.01,2013-03-24 15:27:00,
2013-03-24 08:28:00,39.9,17.0,30.18,East,83,11.4,12.8,39,0.00,,---,0.00,VWS V14.01,2013-03-24 15:28:00,
2013-03-24 08:30:00,40.1,16.5,30.18,East,84,12.8,13.2,38,0.00,,---,0.00,VWS V14.01,2013-03-24 15:30:00,
2013-03-24 08:32:00,40.1,15.3,30.18,ENE,62,12.8,12.8,36,0.00,,---,0.00,VWS V14.01,2013-03-24 15:32:00,
2013-03-24 08:33:00,40.3,15.5,30.18,East,87,12.3,12.8,36,0.00,,---,0.00,VWS V14.01,2013-03-24 15:33:00,
2013-03-24 08:35:00,40.3,14.8,30.18,East,81,10.1,10.1,35,0.00,,---,0.00,VWS V14.01,2013-03-24 15:35:00,
2013-03-24 08:38:00,40.3,14.8,30.18,ENE,78,10.5,11.0,35,0.00,,---,0.00,VWS V14.01,2013-03-24 15:38:00,
2013-03-24 08:39:00,40.5,15.0,30.18,East,82,13.2,13.2,35,0.00,,---,0.00,VWS V14.01,2013-03-24 15:39:00,
2013-03-24 08:42:00,40.5,15.0,30.18,East,88,8.3,11.9,35,0.00,,---,0.00,VWS V14.01,2013-03-24 15:42:00,
2013-03-24 08:45:00,40.5,14.3,30.18,ENE,57,10.5,12.8,34,0.00,,---,0.00,VWS V14.01,2013-03-24 15:45:00,
2013-03-24 08:47:00,40.5,14.3,30.18,ENE,77,8.3,12.8,34,0.00,,---,0.00,VWS V14.01,2013-03-24 15:47:00,
2013-03-24 08:49:00,40.3,13.5,30.18,East,87,13.2,13.2,33,0.00,,---,0.00,VWS V14.01,2013-03-24 15:49:00,
2013-03-24 08:50:00,40.3,13.5,30.18,East,79,9.2,13.2,33,0.00,,---,0.00,VWS V14.01,2013-03-24 15:50:00,
2013-03-24 08:55:00,40.3,13.5,30.18,East,83,11.0,11.9,33,0.00,,---,0.00,VWS V14.01,2013-03-24 15:55:00,
2013-03-24 08:56:00,40.3,13.5,30.18,East,79,10.5,11.0,33,0.00,,---,0.00,VWS V14.01,2013-03-24 15:56:00,
2013-03-24 08:58:00,40.3,13.5,30.18,East,82,10.5,12.3,33,0.00,,---,0.00,VWS V14.01,2013-03-24 15:58:00,
2013-03-24 09:01:00,40.3,13.5,30.18,East,81,10.1,10.1,33,0.00,,---,0.00,VWS V14.01,2013-03-24 16:01:00,
2013-03-24 09:04:00,40.5,13.6,30.18,ENE,73,6.3,8.1,33,0.00,,---,0.00,VWS V14.01,2013-03-24 16:04:00,
2013-03-24 09:07:00,40.5,13.6,30.18,East,79,11.0,11.0,33,0.00,,---,0.00,VWS V14.01,2013-03-24 16:07:00,
2013-03-24 09:09:00,40.5,13.6,30.18,ENE,57,7.6,8.7,33,0.00,,---,0.00,VWS V14.01,2013-03-24 16:09:00,
2013-03-24 09:10:00,40.5,13.6,30.18,ENE,75,9.6,9.6,33,0.00,,---,0.00,VWS V14.01,2013-03-24 16:10:00,
2013-03-24 09:13:00,40.5,13.6,30.18,ENE,77,8.3,8.3,33,0.00,,---,0.00,VWS V14.01,2013-03-24 16:13:00,
2013-03-24 09:14:00,40.5,13.6,30.18,ENE,74,8.7,8.7,33,0.00,,---,0.00,VWS V14.01,2013-03-24 16:14:00,
2013-03-24 09:17:00,40.5,13.6,30.18,East,79,8.3,11.0,33,0.00,,---,0.00,VWS V14.01,2013-03-24 16:17:00,
2013-03-24 09:20:00,40.5,13.6,30.18,ENE,66,10.1,11.0,33,0.00,,---,0.00,VWS V14.01,2013-03-24 16:20:00,
2013-03-24 09:25:00,40.5,13.6,30.18,East,86,10.1,11.0,33,0.00,,---,0.00,VWS V14.01,2013-03-24 16:25:00,
2013-03-24 09:27:00,40.5,12.9,30.18,ENE,65,8.7,10.1,32,0.00,,---,0.00,VWS V14.01,2013-03-24 16:27:00,
2013-03-24 09:29:00,40.6,13.1,30.18,East,82,11.4,11.4,32,0.00,,---,0.00,VWS V14.01,2013-03-24 16:29:00,
2013-03-24 09:32:00,40.6,13.1,30.18,East,84,12.3,12.3,32,0.00,,---,0.00,VWS V14.01,2013-03-24 16:32:00,
2013-03-24 09:36:00,40.6,12.4,30.18,ENE,72,11.0,11.0,31,0.00,,---,0.00,VWS V14.01,2013-03-24 16:36:00,
2013-03-24 09:37:00,40.6,12.4,30.18,East,83,13.2,13.2,31,0.00,,---,0.00,VWS V14.01,2013-03-24 16:37:00,
2013-03-24 09:38:00,40.6,12.4,30.18,East,88,11.9,13.2,31,0.00,,---,0.00,VWS V14.01,2013-03-24 16:38:00,
2013-03-24 09:43:00,40.8,12.5,30.18,East,93,11.9,11.9,31,0.00,,---,0.00,VWS V14.01,2013-03-24 16:43:00,
2013-03-24 09:44:00,40.8,12.5,30.18,ENE,78,12.8,12.8,31,0.00,,---,0.00,VWS V14.01,2013-03-24 16:44:00,
2013-03-24 09:46:00,41.0,12.0,30.18,East,89,10.5,12.8,30,0.00,,---,0.00,VWS V14.01,2013-03-24 16:46:00,
2013-03-24 09:49:00,41.2,12.9,30.18,East,91,10.5,12.3,31,0.00,,---,0.00,VWS V14.01,2013-03-24 16:49:00,
2013-03-24 09:52:00,41.2,12.9,30.18,ENE,75,10.5,12.8,31,0.00,,---,0.00,VWS V14.01,2013-03-24 16:52:00,
2013-03-24 09:53:00,41.4,12.3,30.18,ENE,74,10.5,10.5,30,0.00,,---,0.00,VWS V14.01,2013-03-24 16:53:00,
2013-03-24 09:54:00,41.4,12.3,30.18,ENE,74,10.5,10.5,30,0.00,,---,0.00,VWS V14.01,2013-03-24 16:54:00,
2013-03-24 09:55:00,41.5,13.2,30.18,East,92,10.1,10.5,31,0.00,,---,0.00,VWS V14.01,2013-03-24 16:55:00,
2013-03-24 10:00:00,41.7,13.3,30.18,East,83,11.0,11.4,31,0.00,,---,0.00,VWS V14.01,2013-03-24 17:00:00,
2013-03-24 10:03:00,41.7,12.6,30.18,ENE,70,11.0,11.0,30,0.00,,---,0.00,VWS V14.01,2013-03-24 17:03:00,
2013-03-24 10:04:00,41.9,12.7,30.18,East,93,10.1,11.0,30,0.00,,---,0.00,VWS V14.01,2013-03-24 17:04:00,
2013-03-24 10:07:00,41.9,12.0,30.18,East,89,8.3,11.0,29,0.00,,---,0.00,VWS V14.01,2013-03-24 17:07:00,
2013-03-24 10:11:00,42.1,12.9,30.18,East,80,9.6,9.6,30,0.00,,---,0.00,VWS V14.01,2013-03-24 17:11:00,
2013-03-24 10:12:00,42.3,13.1,30.18,ENE,71,10.5,11.0,30,0.00,,---,0.00,VWS V14.01,2013-03-24 17:12:00,
2013-03-24 10:14:00,42.4,13.2,30.18,ENE,62,8.3,11.0,30,0.00,,---,0.00,VWS V14.01,2013-03-24 17:14:00,
2013-03-24 10:16:00,42.4,13.2,30.18,ENE,66,8.1,11.0,30,0.00,,---,0.00,VWS V14.01,2013-03-24 17:16:00,
2013-03-24 10:18:00,42.4,13.2,30.18,ENE,78,11.4,11.9,30,0.00,,---,0.00,VWS V14.01,2013-03-24 17:18:00,
2013-03-24 10:21:00,42.6,13.4,30.18,East,87,11.0,11.0,30,0.00,,---,0.00,VWS V14.01,2013-03-24 17:21:00,
2013-03-24 10:22:00,42.8,12.8,30.18,ENE,72,10.1,11.0,29,0.00,,---,0.00,VWS V14.01,2013-03-24 17:22:00,
2013-03-24 10:24:00,42.8,12.8,30.18,East,79,12.8,12.8,29,0.00,,---,0.00,VWS V14.01,2013-03-24 17:24:00,
2013-03-24 10:25:00,42.8,12.8,30.18,East,81,12.3,12.8,29,0.00,,---,0.00,VWS V14.01,2013-03-24 17:25:00,
2013-03-24 10:27:00,42.8,12.8,30.18,ENE,65,8.3,10.5,29,0.00,,---,0.00,VWS V14.01,2013-03-24 17:27:00,
2013-03-24 10:32:00,43.0,12.9,30.18,ENE,62,5.8,9.2,29,0.00,,---,0.00,VWS V14.01,2013-03-24 17:32:00,
2013-03-24 10:33:00,43.0,12.9,30.18,NE,44,8.3,8.3,29,0.00,,---,0.00,VWS V14.01,2013-03-24 17:33:00,
2013-03-24 10:35:00,43.0,12.9,30.18,NE,53,8.1,8.1,29,0.00,,---,0.00,VWS V14.01,2013-03-24 17:35:00,
2013-03-24 10:38:00,43.0,13.7,30.18,ENE,69,8.1,8.7,30,0.00,,---,0.00,VWS V14.01,2013-03-24 17:38:00,
2013-03-24 10:39:00,43.0,12.9,30.18,ENE,73,7.2,8.1,29,0.00,,---,0.00,VWS V14.01,2013-03-24 17:39:00,
2013-03-24 10:41:00,43.0,12.9,30.18,NE,48,8.1,8.1,29,0.00,,---,0.00,VWS V14.01,2013-03-24 17:41:00,
2013-03-24 10:43:00,43.0,12.9,30.18,ENE,61,3.6,8.1,29,0.00,,---,0.00,VWS V14.01,2013-03-24 17:43:00,
2013-03-24 10:45:00,43.0,12.9,30.18,NNE,19,3.6,4.9,29,0.00,,---,0.00,VWS V14.01,2013-03-24 17:45:00,
2013-03-24 10:46:00,43.0,12.9,30.18,East,81,5.8,8.3,29,0.00,,---,0.00,VWS V14.01,2013-03-24 17:46:00,
2013-03-24 10:48:00,43.0,12.9,30.18,ENE,70,8.7,8.7,29,0.00,,---,0.00,VWS V14.01,2013-03-24 17:48:00,
2013-03-24 10:49:00,43.0,13.7,30.18,NE,34,4.0,8.7,30,0.00,,---,0.00,VWS V14.01,2013-03-24 17:49:00,
2013-03-24 10:51:00,43.0,13.7,30.18,ENE,72,4.0,4.0,30,0.00,,---,0.00,VWS V14.01,2013-03-24 17:51:00,
2013-03-24 10:52:00,43.0,13.7,30.18,ENE,59,3.6,4.0,30,0.00,,---,0.00,VWS V14.01,2013-03-24 17:52:00,
2013-03-24 10:53:00,43.0,13.7,30.18,NNE,18,4.0,4.0,30,0.00,,---,0.00,VWS V14.01,2013-03-24 17:53:00,
2013-03-24 10:58:00,43.2,13.8,30.18,ENE,74,6.3,8.1,30,0.00,,---,0.00,VWS V14.01,2013-03-24 17:58:00,
2013-03-24 10:59:00,43.3,14.0,30.18,East,82,5.4,6.3,30,0.00,,---,0.00,VWS V14.01,2013-03-24 17:59:00,
2013-03-24 11:01:00,43.3,14.0,30.18,ENE,60,4.9,4.9,30,0.00,,---,0.00,VWS V14.01,2013-03-24 18:01:00,
2013-03-24 11:03:00,43.3,14.0,30.18,East,86,5.8,5.8,30,0.00,,---,0.00,VWS V14.01,2013-03-24 18:03:00,
2013-03-24 11:06:00,43.5,14.9,30.18,ENE,69,3.6,6.3,31,0.00,,---,0.00,VWS V14.01,2013-03-24 18:06:00,
2013-03-24 11:09:00,43.7,15.1,30.18,NE,48,6.3,6.3,31,0.00,,---,0.00,VWS V14.01,2013-03-24 18:09:00,
2013-03-24 11:12:00,44.1,15.4,30.18,East,84,5.4,5.8,31,0.00,,---,0.00,VWS V14.01,2013-03-24 18:12:00,
2013-03-24 11:15:00,44.2,15.5,30.18,East,84,5.8,5.8,31,0.00,,---,0.00,VWS V14.01,2013-03-24 18:15:00,
2013-03-24 11:16:00,44.2,15.5,30.18,East,83,5.8,5.8,31,0.00,,---,0.00,VWS V14.01,2013-03-24 18:16:00,
2013-03-24 11:17:00,44.4,15.7,30.18,ENE,64,5.8,7.6,31,0.00,,---,0.00,VWS V14.01,2013-03-24 18:17:00,
2013-03-24 11:20:00,44.8,16.0,30.18,East,87,6.3,6.7,31,0.00,,---,0.00,VWS V14.01,2013-03-24 18:20:00,
2013-03-24 11:23:00,45.1,16.3,30.18,ENE,77,5.4,8.1,31,0.00,,---,0.00,VWS V14.01,2013-03-24 18:23:00,
2013-03-24 11:26:00,45.3,16.5,30.18,ENE,72,5.8,5.8,31,0.00,,---,0.00,VWS V14.01,2013-03-24 18:26:00,
2013-03-24 11:32:00,45.9,17.0,30.18,ENE,61,4.9,5.4,31,0.00,,---,0.00,VWS V14.01,2013-03-24 18:32:00,
2013-03-24 11:34:00,46.0,16.4,30.18,ENE,68,5.4,5.4,30,0.00,,---,0.00,VWS V14.01,2013-03-24 18:34:00,
2013-03-24 11:37:00,46.0,16.4,30.18,ENE,68,3.1,4.0,30,0.00,,---,0.00,VWS V14.01,2013-03-24 18:37:00,
2013-03-24 11:38:00,46.0,16.4,30.18,NE,44,4.0,4.0,30,0.00,,---,0.00,VWS V14.01,2013-03-24 18:38:00,
2013-03-24 11:39:00,46.2,16.5,30.18,ENE,72,5.4,5.4,30,0.00,,---,0.00,VWS V14.01,2013-03-24 18:39:00,
2013-03-24 11:43:00,46.6,16.0,30.18,East,79,6.3,6.3,29,0.00,,---,0.00,VWS V14.01,2013-03-24 18:43:00,
2013-03-24 11:45:00,46.9,16.4,30.15,NNE,28,4.9,6.3,29,0.00,,---,0.00,VWS V14.01,2013-03-24 18:45:00,
2013-03-24 11:50:00,47.5,16.8,30.15,ENE,73,8.1,8.1,29,0.00,,---,0.00,VWS V14.01,2013-03-24 18:50:00,
2013-03-24 11:51:00,47.5,16.8,30.15,ENE,59,5.8,8.1,29,0.00,,---,0.00,VWS V14.01,2013-03-24 18:51:00,
2013-03-24 11:53:00,47.7,17.0,30.15,ENE,77,4.9,8.1,29,0.00,,---,0.00,VWS V14.01,2013-03-24 18:53:00,
2013-03-24 11:55:00,47.8,16.3,30.15,ENE,75,7.6,8.3,28,0.00,,---,0.00,VWS V14.01,2013-03-24 18:55:00,
2013-03-24 11:59:00,48.4,16.8,30.15,ENE,69,6.3,6.3,28,0.00,,---,0.00,VWS V14.01,2013-03-24 18:59:00,
2013-03-24 12:00:00,48.6,17.0,30.15,ENE,73,6.7,6.7,28,0.00,,---,0.00,VWS V14.01,2013-03-24 19:00:00,
2013-03-24 12:05:00,48.7,17.1,30.15,East,83,5.8,7.6,28,0.00,,---,0.00,VWS V14.01,2013-03-24 19:05:00,
2013-03-24 12:06:00,48.7,17.1,30.15,ENE,75,4.0,6.3,28,0.00,,---,0.00,VWS V14.01,2013-03-24 19:06:00,
2013-03-24 12:07:00,48.7,17.1,30.15,ENE,76,3.6,5.8,28,0.00,,---,0.00,VWS V14.01,2013-03-24 19:07:00,
2013-03-24 12:11:00,48.7,17.1,30.15,ENE,62,5.4,6.3,28,0.00,,---,0.00,VWS V14.01,2013-03-24 19:11:00,
2013-03-24 12:12:00,48.7,17.1,30.15,East,86,5.4,5.4,28,0.00,,---,0.00,VWS V14.01,2013-03-24 19:12:00,
2013-03-24 12:13:00,48.9,17.3,30.15,NE,52,5.4,5.4,28,0.00,,---,0.00,VWS V14.01,2013-03-24 19:13:00,
2013-03-24 12:14:00,48.9,17.3,30.15,NE,40,3.1,5.4,28,0.00,,---,0.00,VWS V14.01,2013-03-24 19:14:00,
2013-03-24 12:18:00,48.9,17.3,30.15,ENE,62,3.1,4.9,28,0.00,,---,0.00,VWS V14.01,2013-03-24 19:18:00,
2013-03-24 12:19:00,48.9,17.3,30.15,ENE,57,3.6,5.4,28,0.00,,---,0.00,VWS V14.01,2013-03-24 19:19:00,
2013-03-24 12:24:00,49.1,16.6,30.15,NE,41,3.1,3.6,27,0.00,,---,0.00,VWS V14.01,2013-03-24 19:24:00,
2013-03-24 12:27:00,49.1,16.6,30.15,ENE,63,4.0,6.3,27,0.00,,---,0.00,VWS V14.01,2013-03-24 19:27:00,
2013-03-24 12:29:00,48.9,16.4,30.15,ENE,61,4.0,4.0,27,0.00,,---,0.00,VWS V14.01,2013-03-24 19:29:00,
2013-03-24 12:30:00,48.9,16.4,30.15,NE,41,0.0,4.0,27,0.00,,---,0.00,VWS V14.01,2013-03-24 19:30:00,
2013-03-24 12:32:00,48.6,16.1,30.15,NE,52,5.4,5.4,27,0.00,,---,0.00,VWS V14.01,2013-03-24 19:32:00,
2013-03-24 12:35:00,48.4,16.0,30.15,NE,55,0.0,4.0,27,0.00,,---,0.00,VWS V14.01,2013-03-24 19:35:00,
2013-03-24 12:39:00,48.0,15.6,30.15,NE,35,3.6,3.6,27,0.00,,---,0.00,VWS V14.01,2013-03-24 19:39:00,
2013-03-24 12:42:00,48.0,15.6,30.15,ENE,61,0.0,0.0,27,0.00,,---,0.00,VWS V14.01,2013-03-24 19:42:00,
2013-03-24 12:46:00,48.0,15.6,30.15,ENE,63,0.0,3.6,27,0.00,,---,0.00,VWS V14.01,2013-03-24 19:46:00,
2013-03-24 12:47:00,48.0,15.6,30.15,ENE,78,2.2,3.1,27,0.00,,---,0.00,VWS V14.01,2013-03-24 19:47:00,
2013-03-24 12:49:00,48.2,15.8,30.15,NE,44,2.7,3.1,27,0.00,,---,0.00,VWS V14.01,2013-03-24 19:49:00,
2013-03-24 12:51:00,48.4,16.0,30.15,NNE,15,0.0,3.6,27,0.00,,---,0.00,VWS V14.01,2013-03-24 19:51:00,
2013-03-24 12:54:00,48.4,16.0,30.15,NNE,30,4.0,5.4,27,0.00,,---,0.00,VWS V14.01,2013-03-24 19:54:00,
2013-03-24 12:56:00,48.4,16.0,30.15,NE,35,4.0,4.0,27,0.00,,---,0.00,VWS V14.01,2013-03-24 19:56:00,
2013-03-24 12:57:00,48.4,16.0,30.15,ENE,75,3.1,4.0,27,0.00,,---,0.00,VWS V14.01,2013-03-24 19:57:00,
2013-03-24 13:01:00,48.6,16.1,30.15,NE,41,3.1,3.1,27,0.00,,---,0.00,VWS V14.01,2013-03-24 20:01:00,
2013-03-24 13:02:00,48.7,16.3,30.15,NE,48,2.7,3.1,27,0.00,,---,0.00,VWS V14.01,2013-03-24 20:02:00,
2013-03-24 13:03:00,48.7,16.3,30.15,East,84,2.7,2.7,27,0.00,,---,0.00,VWS V14.01,2013-03-24 20:03:00,
2013-03-24 13:06:00,48.9,16.4,30.15,NE,44,0.0,4.9,27,0.00,,---,0.00,VWS V14.01,2013-03-24 20:06:00,
2013-03-24 13:11:00,49.1,15.7,30.15,ENE,69,4.0,4.9,26,0.00,,---,0.00,VWS V14.01,2013-03-24 20:11:00,
2013-03-24 13:15:00,49.1,15.7,30.15,NE,34,4.0,4.0,26,0.00,,---,0.00,VWS V14.01,2013-03-24 20:15:00,
2013-03-24 13:17:00,48.9,15.6,30.15,NE,51,2.7,3.6,26,0.00,,---,0.00,VWS V14.01,2013-03-24 20:17:00,
2013-03-24 13:19:00,48.9,15.6,30.15,NE,51,3.6,3.6,26,0.00,,---,0.00,VWS V14.01,2013-03-24 20:19:00,
2013-03-24 13:22:00,48.7,15.4,30.15,East,83,2.7,2.7,26,0.00,,---,0.00,VWS V14.01,2013-03-24 20:22:00,
2013-03-24 13:24:00,48.9,15.6,30.15,ENE,74,3.1,3.1,26,0.00,,---,0.00,VWS V14.01,2013-03-24 20:24:00,
2013-03-24 13:27:00,48.9,15.6,30.15,NE,42,0.0,4.0,26,0.00,,---,0.00,VWS V14.01,2013-03-24 20:27:00,
2013-03-24 13:29:00,48.9,15.6,30.15,NE,42,5.4,5.4,26,0.00,,---,0.00,VWS V14.01,2013-03-24 20:29:00,
2013-03-24 13:34:00,49.1,15.7,30.12,ENE,57,0.0,4.9,26,0.00,,---,0.00,VWS V14.01,2013-03-24 20:34:00,
2013-03-24 13:35:00,49.1,15.7,30.12,NNE,33,3.1,3.1,26,0.00,,---,0.00,VWS V14.01,2013-03-24 20:35:00,
2013-03-24 13:40:00,49.5,16.0,30.12,NE,44,2.7,5.4,26,0.00,,---,0.00,VWS V14.01,2013-03-24 20:40:00,
2013-03-24 13:41:00,49.5,16.0,30.12,NE,41,0.0,2.7,26,0.00,,---,0.00,VWS V14.01,2013-03-24 20:41:00,
2013-03-24 13:46:00,49.5,14.2,30.12,ENE,63,2.2,4.0,24,0.00,,---,0.00,VWS V14.01,2013-03-24 20:46:00,
2013-03-24 13:47:00,49.6,16.2,30.12,NE,42,2.2,2.2,26,0.00,,---,0.00,VWS V14.01,2013-03-24 20:47:00,
2013-03-24 13:48:00,49.6,14.3,30.12,NE,39,3.6,3.6,24,0.00,,---,0.00,VWS V14.01,2013-03-24 20:48:00,
2013-03-24 13:51:00,49.6,14.3,30.12,ENE,78,3.1,3.1,24,0.00,,---,0.00,VWS V14.01,2013-03-24 20:51:00,
2013-03-24 13:52:00,49.6,14.3,30.12,East,81,3.1,3.1,24,0.00,,---,0.00,VWS V14.01,2013-03-24 20:52:00,
2013-03-24 13:53:00,49.6,14.3,30.12,ENE,70,4.0,4.0,24,0.00,,---,0.00,VWS V14.01,2013-03-24 20:53:00,
2013-03-24 13:59:00,50.0,14.6,30.12,NE,55,0.0,2.2,24,0.00,,---,0.00,VWS V14.01,2013-03-24 20:59:00,
2013-03-24 14:01:00,50.0,14.6,30.12,NE,53,4.0,4.0,24,0.00,,---,0.00,VWS V14.01,2013-03-24 21:01:00,
2013-03-24 14:02:00,50.2,14.8,30.12,NNE,15,0.0,4.0,24,0.00,,---,0.00,VWS V14.01,2013-03-24 21:02:00,
2013-03-24 14:04:00,50.2,11.8,30.12,East,90,5.4,5.4,21,0.00,,---,0.00,VWS V14.01,2013-03-24 21:04:00,
2013-03-24 14:07:00,50.4,11.9,30.12,NE,40,2.7,3.6,21,0.00,,---,0.00,VWS V14.01,2013-03-24 21:07:00,
2013-03-24 14:09:00,50.5,12.1,30.12,NE,34,2.7,2.7,21,0.00,,---,0.00,VWS V14.01,2013-03-24 21:09:00,
2013-03-24 14:10:00,50.5,12.1,30.12,ENE,60,0.0,2.7,21,0.00,,---,0.00,VWS V14.01,2013-03-24 21:10:00,
2013-03-24 14:15:00,50.7,10.0,30.12,ENE,57,0.0,2.2,19,0.00,,---,0.00,VWS V14.01,2013-03-24 21:15:00,
2013-03-24 14:16:00,50.9,10.1,30.12,ENE,72,4.0,4.0,19,0.00,,---,0.00,VWS V14.01,2013-03-24 21:16:00,
2013-03-24 14:21:00,51.6,13.0,30.12,East,83,5.8,5.8,21,0.00,,---,0.00,VWS V14.01,2013-03-24 21:21:00,
2013-03-24 14:22:00,51.6,13.0,30.12,East,89,3.1,5.8,21,0.00,,---,0.00,VWS V14.01,2013-03-24 21:22:00,
2013-03-24 14:23:00,51.8,13.1,30.12,NE,54,3.1,4.0,21,0.00,,---,0.00,VWS V14.01,2013-03-24 21:23:00,
2013-03-24 14:27:00,52.3,13.6,30.12,ENE,77,5.4,5.4,21,0.00,,---,0.00,VWS V14.01,2013-03-24 21:27:00,
2013-03-24 14:28:00,52.5,13.7,30.12,NE,42,2.2,5.4,21,0.00,,---,0.00,VWS V14.01,2013-03-24 21:28:00,
2013-03-24 14:32:00,52.7,13.9,30.12,ENE,69,3.1,5.8,21,0.00,,---,0.00,VWS V14.01,2013-03-24 21:32:00,
2013-03-24 14:34:00,52.3,10.1,30.12,East,84,4.0,4.0,18,0.00,,---,0.00,VWS V14.01,2013-03-24 21:34:00,
2013-03-24 14:37:00,52.5,10.2,30.12,ENE,65,3.6,5.8,18,0.00,,---,0.00,VWS V14.01,2013-03-24 21:37:00,
2013-03-24 14:40:00,53.1,14.2,30.12,ENE,68,2.7,5.4,21,0.00,,---,0.00,VWS V14.01,2013-03-24 21:40:00,
2013-03-24 14:42:00,53.2,14.3,30.12,ENE,62,5.4,6.3,21,0.00,,---,0.00,VWS V14.01,2013-03-24 21:42:00,
2013-03-24 14:45:00,53.6,11.1,30.12,ENE,65,3.6,4.0,18,0.00,,---,0.00,VWS V14.01,2013-03-24 21:45:00,
2013-03-24 14:50:00,54.1,11.6,30.12,ENE,58,2.7,4.0,18,0.00,,---,0.00,VWS V14.01,2013-03-24 21:50:00,
2013-03-24 14:51:00,54.1,11.6,30.12,East,79,4.0,4.0,18,0.00,,---,0.00,VWS V14.01,2013-03-24 21:51:00,
2013-03-24 14:56:00,54.3,11.7,30.12,East,87,4.0,4.9,18,0.00,,---,0.00,VWS V14.01,2013-03-24 21:56:00,
2013-03-24 14:57:00,54.5,11.9,30.12,East,87,4.0,4.0,18,0.00,,---,0.00,VWS V14.01,2013-03-24 21:57:00,
2013-03-24 15:00:00,54.5,11.9,30.09,East,87,4.0,4.0,18,0.00,,---,0.00,VWS V14.01,2013-03-24 22:00:00,
2013-03-24 15:02:00,54.7,12.0,30.09,East,87,4.0,4.0,18,0.00,,---,0.00,VWS V14.01,2013-03-24 22:02:00,
2013-03-24 15:06:00,54.7,8.0,30.09,East,87,4.0,4.0,15,0.00,,---,0.00,VWS V14.01,2013-03-24 22:06:00,
2013-03-24 15:08:00,54.7,12.0,30.09,East,87,4.0,4.0,18,0.00,,---,0.00,VWS V14.01,2013-03-24 22:08:00,
2013-03-24 15:09:00,54.7,12.0,30.09,East,87,4.0,4.0,18,0.00,,---,0.00,VWS V14.01,2013-03-24 22:09:00,
2013-03-24 15:14:00,54.7,8.0,30.09,East,87,4.0,4.0,15,0.00,,---,0.00,VWS V14.01,2013-03-24 22:14:00,
2013-03-24 15:15:00,54.7,8.0,30.09,East,87,4.0,4.0,15,0.00,,---,0.00,VWS V14.01,2013-03-24 22:15:00,
2013-03-24 15:19:00,54.9,12.2,30.09,East,95,4.0,4.0,18,0.00,,---,0.00,VWS V14.01,2013-03-24 22:19:00,
2013-03-24 15:20:00,54.9,12.2,30.09,ENE,68,3.6,4.0,18,0.00,,---,0.00,VWS V14.01,2013-03-24 22:20:00,
2013-03-24 15:24:00,55.0,8.2,30.09,ENE,68,3.6,3.6,15,0.00,,---,0.00,VWS V14.01,2013-03-24 22:24:00,
2013-03-24 15:26:00,55.2,12.5,30.09,ENE,68,3.6,3.6,18,0.00,,---,0.00,VWS V14.01,2013-03-24 22:26:00,
2013-03-24 15:29:00,55.9,9.0,30.09,ENE,68,3.6,3.6,15,0.00,,---,0.00,VWS V14.01,2013-03-24 22:29:00,
2013-03-24 15:31:00,55.9,11.8,30.09,ENE,68,3.6,3.6,17,0.00,,---,0.00,VWS V14.01,2013-03-24 22:31:00,
2013-03-24 15:32:00,56.1,9.1,30.09,ENE,68,3.6,3.6,15,0.00,,---,0.00,VWS V14.01,2013-03-24 22:32:00,
2013-03-24 15:35:00,56.3,9.3,30.09,ENE,68,3.6,3.6,15,0.00,,---,0.00,VWS V14.01,2013-03-24 22:35:00,
2013-03-24 15:36:00,56.3,9.3,30.09,ENE,68,3.6,3.6,15,0.00,,---,0.00,VWS V14.01,2013-03-24 22:36:00,
2013-03-24 15:40:00,55.9,9.0,30.09,ENE,72,3.6,3.6,15,0.00,,---,0.00,VWS V14.01,2013-03-24 22:40:00,
2013-03-24 15:42:00,55.8,8.8,30.09,ENE,72,3.6,3.6,15,0.00,,---,0.00,VWS V14.01,2013-03-24 22:42:00,
2013-03-24 15:45:00,55.4,8.5,30.09,ENE,72,3.6,3.6,15,0.00,,---,0.00,VWS V14.01,2013-03-24 22:45:00,
2013-03-24 15:47:00,55.4,8.5,30.09,ENE,72,3.6,3.6,15,0.00,,---,0.00,VWS V14.01,2013-03-24 22:47:00,
2013-03-24 15:49:00,55.4,8.5,30.09,East,89,4.0,4.0,15,0.00,,---,0.00,VWS V14.01,2013-03-24 22:49:00,
2013-03-24 15:53:00,54.9,8.1,30.09,East,89,4.0,4.0,15,0.00,,---,0.00,VWS V14.01,2013-03-24 22:53:00,
2013-03-24 15:55:00,54.5,7.8,30.09,East,89,4.0,4.0,15,0.00,,---,0.00,VWS V14.01,2013-03-24 22:55:00,
2013-03-24 15:57:00,54.3,7.7,30.09,East,89,4.0,4.0,15,0.00,,---,0.00,VWS V14.01,2013-03-24 22:57:00,
2013-03-24 15:58:00,54.1,7.5,30.09,East,89,4.0,4.0,15,0.00,,---,0.00,VWS V14.01,2013-03-24 22:58:00,
2013-03-24 16:02:00,54.1,7.5,30.09,East,85,2.2,2.2,15,0.00,,---,0.00,VWS V14.01,2013-03-24 23:02:00,
2013-03-24 16:04:00,53.6,7.1,30.09,East,85,2.2,2.2,15,0.00,,---,0.00,VWS V14.01,2013-03-24 23:04:00,
2013-03-24 16:08:00,53.4,8.4,30.09,ENE,78,3.6,3.6,16,0.00,,---,0.00,VWS V14.01,2013-03-24 23:08:00,
2013-03-24 16:11:00,53.6,7.1,30.09,ENE,78,3.6,3.6,15,0.00,,---,0.00,VWS V14.01,2013-03-24 23:11:00,
2013-03-24 16:13:00,53.6,7.1,30.09,ENE,78,3.6,3.6,15,0.00,,---,0.00,VWS V14.01,2013-03-24 23:13:00,
2013-03-24 16:14:00,53.6,7.1,30.09,ENE,78,3.6,3.6,15,0.00,,---,0.00,VWS V14.01,2013-03-24 23:14:00,
2013-03-24 16:17:00,53.6,7.1,30.09,ENE,78,3.6,3.6,15,0.00,,---,0.00,VWS V14.01,2013-03-24 23:17:00,
2013-03-24 16:18:00,53.6,7.1,30.09,ENE,78,3.6,3.6,15,0.00,,---,0.00,VWS V14.01,2013-03-24 23:18:00,
2013-03-24 16:23:00,53.8,7.2,30.06,ENE,78,3.6,3.6,15,0.00,,---,0.00,VWS V14.01,2013-03-24 23:23:00,
2013-03-24 16:24:00,53.6,7.1,30.06,ENE,78,3.6,3.6,15,0.00,,---,0.00,VWS V14.01,2013-03-24 23:24:00,
2013-03-24 16:28:00,53.4,8.4,30.06,ENE,78,3.6,3.6,16,0.00,,---,0.00,VWS V14.01,2013-03-24 23:28:00,
2013-03-24 16:29:00,53.4,8.4,30.06,ENE,78,3.6,3.6,16,0.00,,---,0.00,VWS V14.01,2013-03-24 23:29:00,
2013-03-24 16:33:00,53.8,7.2,30.06,ENE,78,3.6,3.6,15,0.00,,---,0.00,VWS V14.01,2013-03-24 23:33:00,
2013-03-24 16:34:00,53.8,7.2,30.06,ENE,78,3.6,3.6,15,0.00,,---,0.00,VWS V14.01,2013-03-24 23:34:00,
2013-03-24 16:39:00,53.6,7.1,30.06,ENE,78,3.6,3.6,15,0.00,,---,0.00,VWS V14.01,2013-03-24 23:39:00,
2013-03-24 16:40:00,53.6,7.1,30.06,ENE,78,3.6,3.6,15,0.00,,---,0.00,VWS V14.01,2013-03-24 23:40:00,
2013-03-24 16:44:00,53.6,7.1,30.06,ENE,78,3.6,3.6,15,0.00,,---,0.00,VWS V14.01,2013-03-24 23:44:00,
2013-03-24 16:45:00,53.6,7.1,30.06,ENE,78,3.6,3.6,15,0.00,,---,0.00,VWS V14.01,2013-03-24 23:45:00,
2013-03-24 16:47:00,53.6,7.1,30.06,ENE,78,3.6,3.6,15,0.00,,---,0.00,VWS V14.01,2013-03-24 23:47:00,
2013-03-24 16:50:00,53.4,8.4,30.06,ENE,78,3.6,3.6,16,0.00,,---,0.00,VWS V14.01,2013-03-24 23:50:00,
2013-03-24 16:52:00,53.4,8.4,30.06,ENE,78,3.6,3.6,16,0.00,,---,0.00,VWS V14.01,2013-03-24 23:52:00,
2013-03-24 16:53:00,53.4,8.4,30.06,ENE,78,3.6,3.6,16,0.00,,---,0.00,VWS V14.01,2013-03-24 23:53:00,
2013-03-24 16:55:00,53.4,8.4,30.06,ENE,78,3.6,3.6,16,0.00,,---,0.00,VWS V14.01,2013-03-24 23:55:00,
2013-03-24 16:59:00,53.4,8.4,30.06,ENE,78,3.6,3.6,16,0.00,,---,0.00,VWS V14.01,2013-03-24 23:59:00,
2013-03-24 17:00:00,53.4,8.4,30.06,East,82,0.0,3.6,16,0.00,,---,0.00,VWS V14.01,2013-03-25 00:00:00,
2013-03-24 17:04:00,53.2,8.2,30.06,East,79,0.0,0.0,16,0.00,,---,0.00,VWS V14.01,2013-03-25 00:04:00,
2013-03-24 17:05:00,53.2,8.2,30.06,East,79,0.0,0.0,16,0.00,,---,0.00,VWS V14.01,2013-03-25 00:05:00,
2013-03-24 17:08:00,53.2,8.2,30.06,East,79,0.0,0.0,16,0.00,,---,0.00,VWS V14.01,2013-03-25 00:08:00,
2013-03-24 17:11:00,53.1,8.1,30.06,East,79,0.0,0.0,16,0.00,,---,0.00,VWS V14.01,2013-03-25 00:11:00,
2013-03-24 17:14:00,52.9,7.9,30.06,East,82,3.1,3.1,16,0.00,,---,0.00,VWS V14.01,2013-03-25 00:14:00,
2013-03-24 17:16:00,52.9,7.9,30.06,East,82,3.1,3.1,16,0.00,,---,0.00,VWS V14.01,2013-03-25 00:16:00,
2013-03-24 17:20:00,52.7,7.8,30.06,East,82,3.1,3.1,16,0.00,,---,0.00,VWS V14.01,2013-03-25 00:20:00,
2013-03-24 17:21:00,52.7,7.8,30.06,East,82,3.1,3.1,16,0.00,,---,0.00,VWS V14.01,2013-03-25 00:21:00,
2013-03-24 17:25:00,52.5,7.6,30.06,East,82,3.1,3.1,16,0.00,,---,0.00,VWS V14.01,2013-03-25 00:25:00,
2013-03-24 17:26:00,52.5,7.6,30.06,East,82,3.1,3.1,16,0.00,,---,0.00,VWS V14.01,2013-03-25 00:26:00,
2013-03-24 17:27:00,52.3,7.5,30.06,East,82,3.1,3.1,16,0.00,,---,0.00,VWS V14.01,2013-03-25 00:27:00,
2013-03-24 17:30:00,52.2,7.3,30.06,East,82,3.1,3.1,16,0.00,,---,0.00,VWS V14.01,2013-03-25 00:30:00,
2013-03-24 17:33:00,52.2,7.3,30.06,East,82,3.1,3.1,16,0.00,,---,0.00,VWS V14.01,2013-03-25 00:33:00,
2013-03-24 17:35:00,52.2,7.3,30.06,East,82,3.1,3.1,16,0.00,,---,0.00,VWS V14.01,2013-03-25 00:35:00,
2013-03-24 17:38:00,51.6,6.9,30.06,NNE,30,0.0,3.1,16,0.00,,---,0.00,VWS V14.01,2013-03-25 00:38:00,
2013-03-24 17:40:00,51.4,6.8,30.06,NNE,30,0.0,0.0,16,0.00,,---,0.00,VWS V14.01,2013-03-25 00:40:00,
2013-03-24 17:41:00,51.4,6.8,30.06,NNE,30,0.0,0.0,16,0.00,,---,0.00,VWS V14.01,2013-03-25 00:41:00,
2013-03-24 17:44:00,51.1,6.5,30.06,NNE,30,0.0,0.0,16,0.00,,---,0.00,VWS V14.01,2013-03-25 00:44:00,
2013-03-24 17:49:00,50.7,6.2,30.06,NNE,30,0.0,0.0,16,0.00,,---,0.00,VWS V14.01,2013-03-25 00:49:00,
2013-03-24 17:50:00,50.7,6.2,30.06,NNE,30,0.0,0.0,16,0.00,,---,0.00,VWS V14.01,2013-03-25 00:50:00,
2013-03-24 17:54:00,50.7,6.2,30.06,NNE,30,0.0,0.0,16,0.00,,---,0.00,VWS V14.01,2013-03-25 00:54:00,
2013-03-24 17:57:00,50.5,6.0,30.06,NNE,30,0.0,0.0,16,0.00,,---,0.00,VWS V14.01,2013-03-25 00:57:00,
2013-03-24 17:59:00,50.5,6.0,30.06,NNE,30,0.0,0.0,16,0.00,,---,0.00,VWS V14.01,2013-03-25 00:59:00,
2013-03-24 18:02:00,50.4,5.9,30.03,NE,42,0.0,0.0,16,0.00,,---,0.00,VWS V14.01,2013-03-25 01:02:00,
2013-03-24 18:07:00,50.2,5.7,30.03,NE,41,0.0,0.0,16,0.00,,---,0.00,VWS V14.01,2013-03-25 01:07:00,
2013-03-24 18:10:00,50.2,5.7,30.03,NE,41,0.0,0.0,16,0.00,,---,0.00,VWS V14.01,2013-03-25 01:10:00,
2013-03-24 18:11:00,50.2,5.7,30.03,NE,41,0.0,0.0,16,0.00,,---,0.00,VWS V14.01,2013-03-25 01:11:00,
2013-03-24 18:12:00,50.2,5.7,30.03,NE,41,0.0,0.0,16,0.00,,---,0.00,VWS V14.01,2013-03-25 01:12:00,
2013-03-24 18:15:00,50.0,5.6,30.03,NE,41,0.0,0.0,16,0.00,,---,0.00,VWS V14.01,2013-03-25 01:15:00,
2013-03-24 18:16:00,50.0,5.6,30.03,NE,41,0.0,0.0,16,0.00,,---,0.00,VWS V14.01,2013-03-25 01:16:00,
2013-03-24 18:21:00,49.8,5.4,30.03,NE,41,0.0,0.0,16,0.00,,---,0.00,VWS V14.01,2013-03-25 01:21:00,
2013-03-24 18:22:00,49.8,5.4,30.03,NE,41,0.0,0.0,16,0.00,,---,0.00,VWS V14.01,2013-03-25 01:22:00,
2013-03-24 18:26:00,49.6,5.3,30.03,NE,41,0.0,0.0,16,0.00,,---,0.00,VWS V14.01,2013-03-25 01:26:00,
2013-03-24 18:27:00,49.6,5.3,30.03,NE,41,0.0,0.0,16,0.00,,---,0.00,VWS V14.01,2013-03-25 01:27:00,
2013-03-24 18:30:00,49.5,5.2,30.03,NE,41,0.0,0.0,16,0.00,,---,0.00,VWS V14.01,2013-03-25 01:30:00,
2013-03-24 18:32:00,49.6,5.3,30.03,NE,41,0.0,0.0,16,0.00,,---,0.00,VWS V14.01,2013-03-25 01:32:00,
2013-03-24 18:34:00,49.6,5.3,30.03,NE,41,0.0,0.0,16,0.00,,---,0.00,VWS V14.01,2013-03-25 01:34:00,
2013-03-24 18:39:00,49.6,5.3,30.03,NE,41,0.0,0.0,16,0.00,,---,0.00,VWS V14.01,2013-03-25 01:39:00,
2013-03-24 18:40:00,49.5,5.2,30.03,NE,41,0.0,0.0,16,0.00,,---,0.00,VWS V14.01,2013-03-25 01:40:00,
2013-03-24 18:42:00,49.3,5.0,30.03,NE,41,0.0,0.0,16,0.00,,---,0.00,VWS V14.01,2013-03-25 01:42:00,
2013-03-24 18:45:00,49.1,4.9,30.03,NE,41,0.0,0.0,16,0.00,,---,0.00,VWS V14.01,2013-03-25 01:45:00,
2013-03-24 18:48:00,48.9,4.7,30.03,ENE,78,0.0,0.0,16,0.00,,---,0.00,VWS V14.01,2013-03-25 01:48:00,
2013-03-24 18:51:00,48.7,4.6,30.03,ENE,78,0.0,0.0,16,0.00,,---,0.00,VWS V14.01,2013-03-25 01:51:00,
2013-03-24 18:52:00,48.7,4.6,30.03,ENE,78,0.0,0.0,16,0.00,,---,0.00,VWS V14.01,2013-03-25 01:52:00,
2013-03-24 18:53:00,48.6,4.4,30.03,ENE,78,0.0,0.0,16,0.00,,---,0.00,VWS V14.01,2013-03-25 01:53:00,
2013-03-24 18:57:00,48.4,4.3,30.03,ENE,78,0.0,0.0,16,0.00,,---,0.00,VWS V14.01,2013-03-25 01:57:00,
2013-03-24 18:58:00,48.4,4.3,30.03,ENE,78,0.0,0.0,16,0.00,,---,0.00,VWS V14.01,2013-03-25 01:58:00,
2013-03-24 19:03:00,48.2,4.1,30.03,ENE,78,0.0,0.0,16,0.00,,---,0.00,VWS V14.01,2013-03-25 02:03:00,
2013-03-24 19:05:00,48.2,4.1,30.03,ENE,78,0.0,0.0,16,0.00,,---,0.00,VWS V14.01,2013-03-25 02:05:00,
2013-03-24 19:09:00,47.8,5.2,30.03,ENE,78,0.0,0.0,17,0.00,,---,0.00,VWS V14.01,2013-03-25 02:09:00,
2013-03-24 19:12:00,47.8,5.2,30.03,ENE,78,0.0,0.0,17,0.00,,---,0.00,VWS V14.01,2013-03-25 02:12:00,
2013-03-24 19:13:00,47.8,5.2,30.03,ENE,78,0.0,0.0,17,0.00,,---,0.00,VWS V14.01,2013-03-25 02:13:00,
2013-03-24 19:17:00,47.7,5.0,30.03,ENE,78,0.0,0.0,17,0.00,,---,0.00,VWS V14.01,2013-03-25 02:17:00,
2013-03-24 19:21:00,47.5,7.3,30.03,ENE,78,0.0,0.0,19,0.00,,---,0.00,VWS V14.01,2013-03-25 02:21:00,
2013-03-24 19:22:00,47.5,7.3,30.03,ENE,78,0.0,0.0,19,0.00,,---,0.00,VWS V14.01,2013-03-25 02:22:00,
2013-03-24 19:28:00,47.1,7.0,30.03,ENE,78,0.0,0.0,19,0.00,,---,0.00,VWS V14.01,2013-03-25 02:28:00,
2013-03-24 19:30:00,46.9,6.8,30.03,ENE,78,0.0,0.0,19,0.00,,---,0.00,VWS V14.01,2013-03-25 02:30:00,
2013-03-24 19:33:00,46.8,6.7,30.03,ENE,78,0.0,0.0,19,0.00,,---,0.00,VWS V14.01,2013-03-25 02:33:00,
2013-03-24 19:35:00,46.6,6.5,30.03,ENE,78,0.0,0.0,19,0.00,,---,0.00,VWS V14.01,2013-03-25 02:35:00,
2013-03-24 19:38:00,46.6,9.8,30.03,ENE,78,0.0,0.0,22,0.00,,---,0.00,VWS V14.01,2013-03-25 02:38:00,
2013-03-24 19:41:00,46.4,9.6,30.03,ENE,68,2.7,2.7,22,0.00,,---,0.00,VWS V14.01,2013-03-25 02:41:00,
2013-03-24 19:45:00,46.2,12.4,30.03,ENE,68,2.7,2.7,25,0.00,,---,0.00,VWS V14.01,2013-03-25 02:45:00,
2013-03-24 19:46:00,46.2,14.1,30.03,ENE,68,2.7,2.7,27,0.00,,---,0.00,VWS V14.01,2013-03-25 02:46:00,
2013-03-24 19:50:00,46.0,13.9,30.03,ENE,68,2.7,2.7,27,0.00,,---,0.00,VWS V14.01,2013-03-25 02:50:00,
2013-03-24 19:52:00,45.9,14.6,30.03,ENE,68,2.7,2.7,28,0.00,,---,0.00,VWS V14.01,2013-03-25 02:52:00,
2013-03-24 19:54:00,45.9,14.6,30.03,ENE,68,2.7,2.7,28,0.00,,---,0.00,VWS V14.01,2013-03-25 02:54:00,
2013-03-24 19:55:00,45.9,14.6,30.03,ENE,68,2.7,2.7,28,0.00,,---,0.00,VWS V14.01,2013-03-25 02:55:00,
2013-03-24 19:59:00,45.3,14.1,30.03,ENE,68,2.7,2.7,28,0.00,,---,0.00,VWS V14.01,2013-03-25 02:59:00,
2013-03-24 20:00:00,45.3,14.1,30.03,ENE,68,2.7,2.7,28,0.00,,---,0.00,VWS V14.01,2013-03-25 03:00:00,
2013-03-24 20:02:00,45.3,14.1,30.03,NE,55,0.0,0.0,28,0.00,,---,0.00,VWS V14.01,2013-03-25 03:02:00,
2013-03-24 20:03:00,45.3,14.1,30.03,NE,55,0.0,0.0,28,0.00,,---,0.00,VWS V14.01,2013-03-25 03:03:00,
2013-03-24 20:04:00,45.3,14.1,30.03,NE,55,0.0,0.0,28,0.00,,---,0.00,VWS V14.01,2013-03-25 03:04:00,
2013-03-24 20:09:00,45.7,14.5,30.03,NE,55,0.0,0.0,28,0.00,,---,0.00,VWS V14.01,2013-03-25 03:09:00,
2013-03-24 20:10:00,45.7,14.5,30.03,NE,52,0.0,0.0,28,0.00,,---,0.00,VWS V14.01,2013-03-25 03:10:00,
2013-03-24 20:12:00,45.9,13.8,30.03,NE,52,0.0,0.0,27,0.00,,---,0.00,VWS V14.01,2013-03-25 03:12:00,
2013-03-24 20:14:00,45.9,13.8,30.03,NE,52,0.0,0.0,27,0.00,,---,0.00,VWS V14.01,2013-03-25 03:14:00,
2013-03-24 20:15:00,45.9,13.8,30.03,NE,52,0.0,0.0,27,0.00,,---,0.00,VWS V14.01,2013-03-25 03:15:00,
2013-03-24 20:19:00,46.0,13.9,30.03,NE,52,0.0,0.0,27,0.00,,---,0.00,VWS V14.01,2013-03-25 03:19:00,
2013-03-24 20:22:00,46.0,14.8,30.03,ENE,73,0.0,0.0,28,0.00,,---,0.00,VWS V14.01,2013-03-25 03:22:00,
2013-03-24 20:23:00,46.0,14.8,30.03,ENE,73,0.0,0.0,28,0.00,,---,0.00,VWS V14.01,2013-03-25 03:23:00,
2013-03-24 20:25:00,45.9,14.6,30.03,ENE,73,0.0,0.0,28,0.00,,---,0.00,VWS V14.01,2013-03-25 03:25:00,
2013-03-24 20:27:00,45.9,14.6,30.03,ENE,73,0.0,0.0,28,0.00,,---,0.00,VWS V14.01,2013-03-25 03:27:00,
2013-03-24 20:32:00,45.9,14.6,30.03,ENE,73,0.0,0.0,28,0.00,,---,0.00,VWS V14.01,2013-03-25 03:32:00,
2013-03-24 20:33:00,45.9,14.6,30.03,ENE,73,0.0,0.0,28,0.00,,---,0.00,VWS V14.01,2013-03-25 03:33:00,
2013-03-24 20:36:00,45.9,14.6,30.03,ENE,73,0.0,0.0,28,0.00,,---,0.00,VWS V14.01,2013-03-25 03:36:00,
2013-03-24 20:37:00,45.9,14.6,30.03,ENE,73,0.0,0.0,28,0.00,,---,0.00,VWS V14.01,2013-03-25 03:37:00,
2013-03-24 20:42:00,45.9,14.6,30.03,ENE,73,0.0,0.0,28,0.00,,---,0.00,VWS V14.01,2013-03-25 03:42:00,
2013-03-24 20:43:00,45.7,14.5,30.03,ENE,73,0.0,0.0,28,0.00,,---,0.00,VWS V14.01,2013-03-25 03:43:00,
2013-03-24 20:48:00,45.5,14.3,30.00,ENE,73,0.0,0.0,28,0.00,,---,0.00,VWS V14.01,2013-03-25 03:48:00,
2013-03-24 20:49:00,45.5,14.3,30.00,ENE,73,0.0,0.0,28,0.00,,---,0.00,VWS V14.01,2013-03-25 03:49:00,
2013-03-24 20:53:00,45.3,14.1,30.00,ENE,73,0.0,0.0,28,0.00,,---,0.00,VWS V14.01,2013-03-25 03:53:00,
2013-03-24 20:56:00,45.1,14.0,30.00,ENE,73,0.0,0.0,28,0.00,,---,0.00,VWS V14.01,2013-03-25 03:56:00,
2013-03-24 20:58:00,45.1,14.0,30.00,ENE,73,0.0,0.0,28,0.00,,---,0.00,VWS V14.01,2013-03-25 03:58:00,
2013-03-24 20:59:00,45.1,14.0,30.00,ENE,73,0.0,0.0,28,0.00,,---,0.00,VWS V14.01,2013-03-25 03:59:00,
2013-03-24 21:00:00,45.0,13.8,30.00,NNE,23,0.0,0.0,28,0.00,,---,0.00,VWS V14.01,2013-03-25 04:00:00,
2013-03-24 21:02:00,44.8,14.5,30.03,NNE,23,0.0,0.0,29,0.00,,---,0.00,VWS V14.01,2013-03-25 04:02:00,
2013-03-24 21:03:00,44.8,14.5,30.03,NNE,23,0.0,0.0,29,0.00,,---,0.00,VWS V14.01,2013-03-25 04:03:00,
2013-03-24 21:06:00,44.8,14.5,30.03,NNE,23,0.0,0.0,29,0.00,,---,0.00,VWS V14.01,2013-03-25 04:06:00,
2013-03-24 21:08:00,44.8,14.5,30.03,NNE,23,0.0,0.0,29,0.00,,---,0.00,VWS V14.01,2013-03-25 04:08:00,
2013-03-24 21:09:00,44.8,14.5,30.03,ENE,58,0.0,0.0,29,0.00,,---,0.00,VWS V14.01,2013-03-25 04:09:00,
2013-03-24 21:10:00,44.8,13.7,30.03,ENE,58,0.0,0.0,28,0.00,,---,0.00,VWS V14.01,2013-03-25 04:10:00,
2013-03-24 21:14:00,44.8,13.7,30.03,ENE,58,0.0,0.0,28,0.00,,---,0.00,VWS V14.01,2013-03-25 04:14:00,
2013-03-24 21:16:00,44.8,14.5,30.03,ENE,58,0.0,0.0,29,0.00,,---,0.00,VWS V14.01,2013-03-25 04:16:00,
2013-03-24 21:17:00,44.8,14.5,30.03,ENE,58,0.0,0.0,29,0.00,,---,0.00,VWS V14.01,2013-03-25 04:17:00,
2013-03-24 21:20:00,44.6,14.3,30.03,ENE,58,0.0,0.0,29,0.00,,---,0.00,VWS V14.01,2013-03-25 04:20:00,
2013-03-24 21:22:00,44.4,14.2,30.03,ENE,58,0.0,0.0,29,0.00,,---,0.00,VWS V14.01,2013-03-25 04:22:00,
2013-03-24 21:24:00,44.4,14.2,30.03,ENE,58,0.0,0.0,29,0.00,,---,0.00,VWS V14.01,2013-03-25 04:24:00,
2013-03-24 21:26:00,44.2,14.0,30.03,ENE,58,0.0,0.0,29,0.00,,---,0.00,VWS V14.01,2013-03-25 04:26:00,
2013-03-24 21:30:00,44.2,14.8,30.03,ENE,58,0.0,0.0,30,0.00,,---,0.00,VWS V14.01,2013-03-25 04:30:00,
2013-03-24 21:31:00,44.1,14.6,30.03,ENE,58,0.0,0.0,30,0.00,,---,0.00,VWS V14.01,2013-03-25 04:31:00,
2013-03-24 21:32:00,44.1,14.6,30.03,ENE,58,0.0,0.0,30,0.00,,---,0.00,VWS V14.01,2013-03-25 04:32:00,
2013-03-24 21:36:00,44.1,15.4,30.03,NE,56,0.0,0.0,31,0.00,,---,0.00,VWS V14.01,2013-03-25 04:36:00,
2013-03-24 21:38:00,44.1,15.4,30.03,NE,56,0.0,0.0,31,0.00,,---,0.00,VWS V14.01,2013-03-25 04:38:00,
2013-03-24 21:39:00,44.1,15.4,30.03,NE,56,0.0,0.0,31,0.00,,---,0.00,VWS V14.01,2013-03-25 04:39:00,
2013-03-24 21:43:00,44.1,16.1,30.03,NE,56,0.0,0.0,32,0.00,,---,0.00,VWS V14.01,2013-03-25 04:43:00,
2013-03-24 21:45:00,44.2,17.0,30.03,NE,56,0.0,0.0,33,0.00,,---,0.00,VWS V14.01,2013-03-25 04:45:00,
2013-03-24 21:48:00,44.2,18.3,30.03,NE,56,0.0,0.0,35,0.00,,---,0.00,VWS V14.01,2013-03-25 04:48:00,
2013-03-24 21:52:00,44.1,18.2,30.03,NE,56,0.0,0.0,35,0.00,,---,0.00,VWS V14.01,2013-03-25 04:52:00,
2013-03-24 21:54:00,44.1,18.2,30.03,NE,56,0.0,0.0,35,0.00,,---,0.00,VWS V14.01,2013-03-25 04:54:00,
2013-03-24 21:57:00,43.9,17.4,30.03,NE,56,0.0,0.0,34,0.00,,---,0.00,VWS V14.01,2013-03-25 04:57:00,
2013-03-24 21:58:00,43.9,17.4,30.03,NE,56,0.0,0.0,34,0.00,,---,0.00,VWS V14.01,2013-03-25 04:58:00,
2013-03-24 22:00:00,43.7,17.2,30.03,NE,56,0.0,0.0,34,0.00,,---,0.00,VWS V14.01,2013-03-25 05:00:00,
2013-03-24 22:02:00,43.7,17.2,30.03,NE,56,0.0,0.0,34,0.00,,---,0.00,VWS V14.01,2013-03-25 05:02:00,
2013-03-24 22:05:00,43.7,17.2,30.03,NE,56,0.0,0.0,34,0.00,,---,0.00,VWS V14.01,2013-03-25 05:05:00,
2013-03-24 22:06:00,43.7,17.2,30.03,NE,56,0.0,0.0,34,0.00,,---,0.00,VWS V14.01,2013-03-25 05:06:00,
2013-03-24 22:10:00,43.7,17.2,30.03,NE,56,0.0,0.0,34,0.00,,---,0.00,VWS V14.01,2013-03-25 05:10:00,
2013-03-24 22:11:00,43.7,17.2,30.03,NE,56,0.0,0.0,34,0.00,,---,0.00,VWS V14.01,2013-03-25 05:11:00,
2013-03-24 22:12:00,43.7,17.2,30.03,NE,56,0.0,0.0,34,0.00,,---,0.00,VWS V14.01,2013-03-25 05:12:00,
2013-03-24 22:17:00,43.7,17.9,30.03,NE,56,0.0,0.0,35,0.00,,---,0.00,VWS V14.01,2013-03-25 05:17:00,
2013-03-24 22:18:00,43.9,18.7,30.03,NE,56,0.0,0.0,36,0.00,,---,0.00,VWS V14.01,2013-03-25 05:18:00,
2013-03-24 22:19:00,43.7,18.5,30.03,NE,56,0.0,0.0,36,0.00,,---,0.00,VWS V14.01,2013-03-25 05:19:00,
2013-03-24 22:24:00,43.7,17.9,30.03,NE,56,0.0,0.0,35,0.00,,---,0.00,VWS V14.01,2013-03-25 05:24:00,
2013-03-24 22:29:00,43.7,18.5,30.03,NE,56,0.0,0.0,36,0.00,,---,0.00,VWS V14.01,2013-03-25 05:29:00,
2013-03-24 22:32:00,43.5,19.0,30.03,NE,56,0.0,0.0,37,0.00,,---,0.00,VWS V14.01,2013-03-25 05:32:00,
2013-03-24 22:35:00,43.5,18.4,30.03,NE,56,0.0,0.0,36,0.00,,---,0.00,VWS V14.01,2013-03-25 05:35:00,
2013-03-24 22:36:00,43.5,18.4,30.03,NE,55,0.0,0.0,36,0.00,,---,0.00,VWS V14.01,2013-03-25 05:36:00,
2013-03-24 22:41:00,43.3,18.2,30.03,NE,55,0.0,0.0,36,0.00,,---,0.00,VWS V14.01,2013-03-25 05:41:00,
2013-03-24 22:42:00,43.3,18.2,30.03,NE,55,0.0,0.0,36,0.00,,---,0.00,VWS V14.01,2013-03-25 05:42:00,
2013-03-24 22:43:00,43.3,18.2,30.03,NE,55,0.0,0.0,36,0.00,,---,0.00,VWS V14.01,2013-03-25 05:43:00,
2013-03-24 22:46:00,43.3,18.2,30.03,NE,55,0.0,0.0,36,0.00,,---,0.00,VWS V14.01,2013-03-25 05:46:00,
2013-03-24 22:50:00,43.5,18.4,30.03,NE,56,0.0,0.0,36,0.00,,---,0.00,VWS V14.01,2013-03-25 05:50:00,
2013-03-24 22:51:00,43.5,18.4,30.03,NE,56,0.0,0.0,36,0.00,,---,0.00,VWS V14.01,2013-03-25 05:51:00,
2013-03-24 22:55:00,43.5,18.4,30.03,NE,56,0.0,0.0,36,0.00,,---,0.00,VWS V14.01,2013-03-25 05:55:00,
2013-03-24 22:56:00,43.5,18.4,30.03,NE,56,0.0,0.0,36,0.00,,---,0.00,VWS V14.01,2013-03-25 05:56:00,
2013-03-24 23:02:00,43.5,18.4,30.03,ENE,66,0.0,0.0,36,0.00,,---,0.00,VWS V14.01,2013-03-25 06:02:00,
2013-03-24 23:06:00,43.3,18.8,30.03,ENE,66,0.0,0.0,37,0.00,,---,0.00,VWS V14.01,2013-03-25 06:06:00,
2013-03-24 23:07:00,43.3,18.8,30.03,ENE,66,0.0,0.0,37,0.00,,---,0.00,VWS V14.01,2013-03-25 06:07:00,
2013-03-24 23:09:00,43.3,19.5,30.03,NE,44,2.7,2.7,38,0.00,,---,0.00,VWS V14.01,2013-03-25 06:09:00,
2013-03-24 23:12:00,43.2,19.3,30.03,NE,44,2.7,2.7,38,0.00,,---,0.00,VWS V14.01,2013-03-25 06:12:00,
2013-03-24 23:17:00,43.2,19.3,30.03,NE,44,2.7,2.7,38,0.00,,---,0.00,VWS V14.01,2013-03-25 06:17:00,
2013-03-24 23:18:00,43.2,19.3,30.03,NE,44,2.7,2.7,38,0.00,,---,0.00,VWS V14.01,2013-03-25 06:18:00,
2013-03-24 23:24:00,43.0,19.1,30.03,NNE,30,0.0,0.0,38,0.00,,---,0.00,VWS V14.01,2013-03-25 06:24:00,
2013-03-24 23:26:00,43.0,19.1,30.03,NNE,30,0.0,0.0,38,0.00,,---,0.00,VWS V14.01,2013-03-25 06:26:00,
2013-03-24 23:28:00,43.0,19.1,30.03,NNE,30,0.0,0.0,38,0.00,,---,0.00,VWS V14.01,2013-03-25 06:28:00,
2013-03-24 23:30:00,43.0,19.1,30.03,NNE,30,0.0,0.0,38,0.00,,---,0.00,VWS V14.01,2013-03-25 06:30:00,
2013-03-24 23:31:00,43.0,19.1,30.03,NNE,30,0.0,0.0,38,0.00,,---,0.00,VWS V14.01,2013-03-25 06:31:00,
2013-03-24 23:35:00,43.2,19.3,30.03,NNE,30,0.0,0.0,38,0.00,,---,0.00,VWS V14.01,2013-03-25 06:35:00,
2013-03-24 23:37:00,43.2,19.3,30.03,NNE,30,0.0,0.0,38,0.00,,---,0.00,VWS V14.01,2013-03-25 06:37:00,
2013-03-24 23:40:00,43.0,19.1,30.03,NNE,30,0.0,0.0,38,0.00,,---,0.00,VWS V14.01,2013-03-25 06:40:00,
2013-03-24 23:44:00,43.0,19.1,30.03,NNE,30,0.0,0.0,38,0.00,,---,0.00,VWS V14.01,2013-03-25 06:44:00,
2013-03-24 23:45:00,43.0,19.1,30.03,NNE,30,0.0,0.0,38,0.00,,---,0.00,VWS V14.01,2013-03-25 06:45:00,
2013-03-24 23:46:00,43.0,19.1,30.03,NNE,30,0.0,0.0,38,0.00,,---,0.00,VWS V14.01,2013-03-25 06:46:00,
2013-03-24 23:48:00,43.0,19.1,30.03,NNE,30,0.0,0.0,38,0.00,,---,0.00,VWS V14.01,2013-03-25 06:48:00,
2013-03-24 23:51:00,43.0,19.1,30.03,NNE,30,0.0,0.0,38,0.00,,---,0.00,VWS V14.01,2013-03-25 06:51:00,
2013-03-24 23:52:00,43.0,19.1,30.03,NNE,30,0.0,0.0,38,0.00,,---,0.00,VWS V14.01,2013-03-25 06:52:00,
2013-03-24 23:55:00,43.0,19.1,30.03,ENE,69,6.3,6.3,38,0.00,,---,0.00,VWS V14.01,2013-03-25 06:55:00,
2013-03-24 23:56:00,43.0,19.1,30.03,ENE,69,6.3,6.3,38,0.00,,---,0.00,VWS V14.01,2013-03-25 06:56:00,
2013-03-24 23:58:00,43.0,19.1,30.03,ENE,69,6.3,6.3,38,0.00,,---,0.00,VWS V14.01,2013-03-25 06:58:00,